DL9BGG-13 Weather Reports


time (UTC)temp
C
wind
direction
speed
KPH
gust
KPH
rain 1hr
cm
rain 24hr
cm
rain mn
cm
humidity
%
barometer
mb
20260903060658 17 247 9.7 0.0 0.00 0.00 0.00 89 1056.9
20260903060537 17 225 17.7 0.0 0.00 0.00 0.00 89 1056.8
20260903060415 17 180 14.5 0.0 0.00 0.00 0.00 89 1056.9
20260903060239 17 225 19.3 0.0 0.00 0.00 0.00 89 1056.9
20260903060135 17 225 12.9 0.0 0.00 0.00 0.00 89 1056.9
20260903060028 17 202 11.3 0.0 0.00 0.00 0.00 89 1056.9
20260903055922 17 180 12.9 0.0 0.00 0.00 0.00 89 1057.0
20260903055817 17 157 12.9 0.0 0.00 0.00 0.00 89 1057.1
20260903055711 17 180 8.0 0.0 0.00 0.00 0.00 89 1057.1
20260903055606 17 180 20.9 0.0 0.00 0.00 0.00 89 1057.0
20260903055500 17 202 12.9 0.0 0.00 0.00 0.00 89 1057.1
20260903055354 17 270 4.8 0.0 0.00 0.00 0.00 89 1057.1
20260903055248 17 180 6.4 0.0 0.00 0.00 0.00 89 1057.2
20260903055143 17 247 14.5 0.0 0.00 0.00 0.00 89 1057.2
20260903055029 17 202 4.8 0.0 0.00 0.00 0.00 89 1057.1
20260903054907 17 180 14.5 0.0 0.00 0.00 0.00 89 1057.2
20260903054752 17 180 12.9 0.0 0.00 0.00 0.00 89 1057.2
20260903054623 17 180 6.4 0.0 0.00 0.00 0.00 89 1057.3
20260903054509 17 225 6.4 0.0 0.00 0.00 0.00 89 1057.1
20260903054358 17 202 9.7 0.0 0.00 0.00 0.00 89 1057.2
20260903054250 17 292 4.8 0.0 0.00 0.00 0.00 89 1057.2
20260903054131 17 225 6.4 0.0 0.00 0.00 0.00 89 1057.1
20260903054016 17 180 9.7 0.0 0.00 0.00 0.00 89 1057.3
20260903053733 17 225 20.9 0.0 0.00 0.00 0.00 89 1057.1
20260903053531 17 270 6.4 0.0 0.00 0.00 0.00 89 1057.2
20260903053354 17 247 12.9 0.0 0.00 0.00 0.00 89 1057.3
20260903053224 17 180 19.3 0.0 0.00 0.00 0.00 90 1057.3
20260903053102 17 225 6.4 0.0 0.00 0.00 0.00 90 1057.2
20260903052924 17 202 6.4 0.0 0.00 0.00 0.00 90 1057.3
20260903052755 17 180 19.3 0.0 0.00 0.00 0.00 90 1057.3
20260903052636 17 202 11.3 0.0 0.00 0.00 0.00 90 1057.3
20260903052527 17 247 14.5 0.0 0.00 0.00 0.00 90 1057.2
20260903052406 17 180 8.0 0.0 0.00 0.00 0.00 90 1057.3
20260903052255 16 180 9.7 0.0 0.00 0.00 0.00 90 1057.3
20260903052148 16 225 183.5 0.0 0.00 0.00 0.00 90 1057.3
20260903051518 16 225 183.5 0.0 0.00 0.00 0.00 91 1057.2
20260903050848 16 225 12.9 0.0 0.00 0.00 0.00 91 1057.4
20260903050412 16 225 9.7 0.0 0.00 0.00 0.00 91 1057.1
20260903050242 16 225 8.0 0.0 0.00 0.00 0.00 91 1057.2
20260903050121 16 247 9.7 0.0 0.00 0.00 0.00 91 1057.2
20260903045926 16 225 4.8 0.0 0.00 0.00 0.00 91 1057.1
20260903045757 16 202 11.3 0.0 0.00 0.00 0.00 91 1057.2
20260903045651 16 202 6.4 0.0 0.00 0.00 0.00 91 1057.2
20260903045539 16 225 8.0 0.0 0.00 0.00 0.00 91 1057.3
20260903045425 16 202 16.1 0.0 0.00 0.00 0.00 91 1057.3
20260903045313 16 202 12.9 0.0 0.00 0.00 0.00 91 1057.3
20260903045209 16 180 9.7 0.0 0.00 0.00 0.00 91 1057.3
20260903045100 16 180 22.5 0.0 0.00 0.00 0.00 91 1057.4
20260903044946 16 202 0.0 0.0 0.00 0.00 0.00 91 1057.4
20260903044839 16 247 9.7 0.0 0.00 0.00 0.00 91 1057.3
20260903044728 16 202 11.3 0.0 0.00 0.00 0.00 91 1057.2
20260903044619 16 157 6.4 0.0 0.00 0.00 0.00 91 1057.2
20260903044459 16 202 11.3 0.0 0.00 0.00 0.00 91 1057.1
20260903044353 16 247 14.5 0.0 0.00 0.00 0.00 91 1057.3
20260903044245 16 202 9.7 0.0 0.00 0.00 0.00 91 1057.2
20260903044130 16 180 4.8 0.0 0.00 0.00 0.00 91 1057.2
20260903044000 16 180 6.4 0.0 0.00 0.00 0.00 91 1057.4
20260903043846 16 225 0.0 0.0 0.00 0.00 0.00 91 1057.3
20260903043739 16 225 9.7 0.0 0.00 0.00 0.00 91 1057.4
20260903043609 16 180 9.7 0.0 0.00 0.00 0.00 91 1057.4
20260903043455 16 180 9.7 0.0 0.00 0.00 0.00 91 1057.3
20260903043347 16 157 6.4 0.0 0.00 0.00 0.00 92 1057.3
20260903043227 16 202 9.7 0.0 0.00 0.00 0.00 91 1057.3
20260903043113 16 202 8.0 0.0 0.00 0.00 0.00 92 1057.4
20260903042959 16 202 22.5 0.0 0.00 0.00 0.00 91 1057.4
20260903042854 16 180 8.0 0.0 0.00 0.00 0.00 91 1057.4
20260903042746 16 202 17.7 0.0 0.00 0.00 0.00 91 1057.3
20260903042616 16 202 11.3 0.0 0.00 0.00 0.00 91 1057.4
20260903042502 16 180 11.3 0.0 0.00 0.00 0.00 91 1057.4
20260903042355 16 202 11.3 0.0 0.00 0.00 0.00 91 1057.5
20260903042235 16 225 12.9 0.0 0.00 0.00 0.00 91 1057.5
20260903042119 16 225 12.9 0.0 0.00 0.00 0.00 91 1057.6
20260903042005 16 202 12.9 0.0 0.00 0.00 0.00 91 1057.6
20260903041859 16 202 14.5 0.0 0.00 0.00 0.00 91 1057.6
20260903041744 16 270 9.7 0.0 0.00 0.00 0.00 91 1057.6
20260903041621 16 157 4.8 0.0 0.00 0.00 0.00 91 1057.6
20260903041508 16 180 22.5 0.0 0.00 0.00 0.00 91 1057.6
20260903041400 16 180 19.3 0.0 0.00 0.00 0.00 91 1057.6
20260903041249 16 157 14.5 0.0 0.00 0.00 0.00 91 1057.7
20260903041143 16 180 20.9 0.0 0.00 0.00 0.00 91 1057.6
20260903041026 16 202 14.5 0.0 0.00 0.00 0.00 91 1057.7
20260903040905 16 202 8.0 0.0 0.00 0.00 0.00 91 1057.7
20260903040758 16 247 8.0 0.0 0.00 0.00 0.00 91 1057.6
20260903040628 16 247 9.7 0.0 0.00 0.00 0.00 91 1057.6
20260903040513 16 247 3.2 0.0 0.00 0.00 0.00 91 1057.7
20260903040359 16 157 11.3 0.0 0.00 0.00 0.00 91 1057.7
20260903040237 16 202 9.7 0.0 0.00 0.00 0.00 91 1057.7
20260903040123 16 180 4.8 0.0 0.00 0.00 0.00 91 1057.7
20260903040017 16 135 17.7 0.0 0.00 0.00 0.00 91 1057.7
20260903035911 16 247 8.0 0.0 0.00 0.00 0.00 91 1057.7
20260903035805 16 225 11.3 0.0 0.00 0.00 0.00 91 1057.8
20260903035658 16 180 22.5 0.0 0.00 0.00 0.00 91 1057.7
20260903035537 16 157 6.4 0.0 0.00 0.00 0.00 91 1057.7
20260903035423 16 180 9.7 0.0 0.00 0.00 0.00 91 1057.8
20260903035316 16 202 22.5 0.0 0.00 0.00 0.00 91 1057.8
20260903035202 16 180 11.3 0.0 0.00 0.00 0.00 91 1057.8
20260903035056 16 247 9.7 0.0 0.00 0.00 0.00 91 1057.8
20260903034941 16 225 6.4 0.0 0.00 0.00 0.00 91 1057.8
20260903034819 16 247 11.3 0.0 0.00 0.00 0.00 90 1057.8
20260903034705 16 180 8.0 0.0 0.00 0.00 0.00 90 1057.9
20260903034546 16 247 6.4 0.0 0.00 0.00 0.00 90 1057.9
20260903034439 16 225 9.7 0.0 0.00 0.00 0.00 90 1057.9
20260903034331 16 225 19.3 0.0 0.00 0.00 0.00 90 1057.9
20260903034210 16 157 22.5 0.0 0.00 0.00 0.00 90 1057.9
20260903034051 16 180 19.3 0.0 0.00 0.00 0.00 90 1058.0
20260903033936 16 202 9.7 0.0 0.00 0.00 0.00 89 1058.0
20260903033822 16 180 12.9 0.0 0.00 0.00 0.00 89 1058.1
20260903033712 16 225 12.9 0.0 0.00 0.00 0.00 89 1058.1
20260903033607 16 180 17.7 0.0 0.00 0.00 0.00 89 1058.1
20260903033452 16 202 9.7 0.0 0.00 0.00 0.00 89 1058.0
20260903033338 16 180 12.9 0.0 0.00 0.00 0.00 89 1058.1
20260903033217 16 225 12.9 0.0 0.00 0.00 0.00 89 1058.0
20260903033056 16 157 11.3 0.0 0.00 0.00 0.00 89 1058.0
20260903032943 16 180 14.5 0.0 0.00 0.00 0.00 89 1058.1
20260903032821 16 225 24.1 0.0 0.00 0.00 0.00 88 1058.2
20260903032708 16 180 6.4 0.0 0.00 0.00 0.00 88 1058.2
20260903032555 16 202 3.2 0.0 0.00 0.00 0.00 88 1058.3
20260903032442 16 270 6.4 0.0 0.00 0.00 0.00 88 1058.2
20260903032329 16 202 12.9 0.0 0.00 0.00 0.00 88 1058.2
20260903032216 16 225 17.7 0.0 0.00 0.00 0.00 88 1058.3
20260903032103 16 180 16.1 0.0 0.00 0.00 0.00 88 1058.3
20260903031958 16 202 16.1 0.0 0.00 0.00 0.00 88 1058.2
20260903031839 16 202 9.7 0.0 0.00 0.00 0.00 88 1058.3
20260903031732 16 180 9.7 0.0 0.00 0.00 0.00 88 1058.2
20260903031620 16 247 12.9 0.0 0.00 0.00 0.00 87 1058.3
20260903031513 16 225 4.8 0.0 0.00 0.00 0.00 87 1058.4
20260903031352 16 225 14.5 0.0 0.00 0.00 0.00 87 1058.2
20260903031241 16 180 19.3 0.0 0.00 0.00 0.00 87 1058.3
20260903031133 16 157 11.3 0.0 0.00 0.00 0.00 87 1058.3
20260903031024 16 180 6.4 0.0 0.00 0.00 0.00 87 1058.5
20260903030916 16 202 20.9 0.0 0.00 0.00 0.00 87 1058.3
20260903030802 16 225 20.9 0.0 0.00 0.00 0.00 87 1058.3
20260903030650 16 180 17.7 0.0 0.00 0.00 0.00 87 1058.3
20260903030536 16 225 9.7 0.0 0.00 0.00 0.00 87 1058.5
20260903030415 16 202 12.9 0.0 0.00 0.00 0.00 87 1058.3
20260903030304 16 157 9.7 0.0 0.00 0.00 0.00 87 1058.3
20260903030157 16 180 9.7 0.0 0.00 0.00 0.00 87 1058.2
20260903030044 16 157 3.2 0.0 0.00 0.00 0.00 87 1058.3
20260903025922 16 202 9.7 0.0 0.00 0.00 0.00 87 1058.3
20260903025811 16 225 8.0 0.0 0.00 0.00 0.00 87 1058.4
20260903025707 16 157 8.0 0.0 0.00 0.00 0.00 87 1058.4
20260903025600 16 202 27.4 0.0 0.00 0.00 0.00 87 1058.5
20260903025438 16 202 9.7 0.0 0.00 0.00 0.00 87 1058.5
20260903025325 16 157 6.4 0.0 0.00 0.00 0.00 87 1058.5
20260903025214 16 202 11.3 0.0 0.00 0.00 0.00 87 1058.6
20260903025107 16 225 11.3 0.0 0.00 0.00 0.00 87 1058.6
20260903024954 16 180 9.7 0.0 0.00 0.00 0.00 87 1058.6
20260903024832 16 180 9.7 0.0 0.00 0.00 0.00 87 1058.6
20260903024721 16 157 14.5 0.0 0.00 0.00 0.00 87 1058.7
20260903024616 16 292 0.0 0.0 0.00 0.00 0.00 87 1058.7
20260903024510 16 202 8.0 0.0 0.00 0.00 0.00 87 1058.6
20260903024359 16 225 6.4 0.0 0.00 0.00 0.00 87 1058.7
20260903024253 16 247 8.0 0.0 0.00 0.00 0.00 87 1058.7
20260903024146 16 202 16.1 0.0 0.00 0.00 0.00 87 1058.6
20260903024034 16 180 16.1 0.0 0.00 0.00 0.00 87 1058.6
20260903023919 16 180 20.9 0.0 0.00 0.00 0.00 87 1058.7
20260903023800 16 202 6.4 0.0 0.00 0.00 0.00 87 1058.7
20260903023646 16 202 20.9 0.0 0.00 0.00 0.00 87 1058.7
20260903023533 16 225 11.3 0.0 0.00 0.00 0.00 87 1058.7
20260903023419 16 247 4.8 0.0 0.00 0.00 0.00 87 1058.7
20260903023258 16 180 20.9 0.0 0.00 0.00 0.00 87 1058.7
20260903023137 16 180 11.3 0.0 0.00 0.00 0.00 87 1058.8
20260903023015 16 180 9.7 0.0 0.00 0.00 0.00 87 1058.9
20260903022903 16 180 6.4 0.0 0.00 0.00 0.00 87 1058.9
20260903022758 16 247 9.7 0.0 0.00 0.00 0.00 87 1058.9
20260903022645 16 202 14.5 0.0 0.00 0.00 0.00 87 1059.0
20260903022541 16 225 16.1 0.0 0.00 0.00 0.00 87 1058.9
20260903022426 16 180 8.0 0.0 0.00 0.00 0.00 87 1059.0
20260903022316 16 135 8.0 0.0 0.00 0.00 0.00 87 1058.9
20260903022208 16 202 17.7 0.0 0.00 0.00 0.00 87 1059.0
20260903022057 16 202 11.3 0.0 0.00 0.00 0.00 87 1059.1
20260903021951 16 202 6.4 0.0 0.00 0.00 0.00 87 1059.0
20260903021846 16 135 19.3 0.0 0.00 0.00 0.00 87 1059.0
20260903021740 16 247 6.4 0.0 0.00 0.00 0.00 87 1059.0
20260903021626 16 180 0.0 0.0 0.00 0.00 0.00 87 1059.0
20260903021513 16 225 11.3 0.0 0.00 0.00 0.00 87 1059.0
20260903021403 16 202 9.7 0.0 0.00 0.00 0.00 87 1059.0
20260903021256 16 180 1.6 0.0 0.00 0.00 0.00 87 1058.9
20260903021143 16 202 0.0 0.0 0.00 0.00 0.00 87 1058.9
20260903021039 16 225 19.3 0.0 0.00 0.00 0.00 87 1059.0
20260903020932 16 225 8.0 0.0 0.00 0.00 0.00 87 1059.0
20260903020807 16 225 16.1 0.0 0.00 0.00 0.00 87 1059.0
20260903020658 16 225 9.7 0.0 0.00 0.00 0.00 87 1059.1
20260903020546 16 157 4.8 0.0 0.00 0.00 0.00 87 1059.1
20260903020441 16 202 19.3 0.0 0.00 0.00 0.00 87 1059.1
20260903020319 16 225 9.7 0.0 0.00 0.00 0.00 87 1059.1
20260903020157 16 202 9.7 0.0 0.00 0.00 0.00 87 1059.1
20260903020039 16 225 3.2 0.0 0.00 0.00 0.00 87 1059.1
20260903015934 16 202 12.9 0.0 0.00 0.00 0.00 87 1059.1
20260903015828 16 157 16.1 0.0 0.00 0.00 0.00 86 1059.1
20260903015721 16 157 19.3 0.0 0.00 0.00 0.00 86 1059.1
20260903015609 16 225 6.4 0.0 0.00 0.00 0.00 86 1059.1
20260903015455 16 247 6.4 0.0 0.00 0.00 0.00 86 1059.1
20260903015337 16 202 19.3 0.0 0.00 0.00 0.00 86 1059.1
20260903015221 16 202 9.7 0.0 0.00 0.00 0.00 86 1059.1
20260903015108 16 157 9.7 0.0 0.00 0.00 0.00 86 1059.2
20260903015003 16 202 8.0 0.0 0.00 0.00 0.00 85 1059.2
20260903014858 17 225 6.4 0.0 0.00 0.00 0.00 85 1059.2
20260903014752 17 225 6.4 0.0 0.00 0.00 0.00 85 1059.2
20260903014646 17 202 12.9 0.0 0.00 0.00 0.00 85 1059.3
20260903014540 17 157 9.7 0.0 0.00 0.00 0.00 85 1059.3
20260903014434 17 202 17.7 0.0 0.00 0.00 0.00 85 1059.3
20260903014321 17 202 17.7 0.0 0.00 0.00 0.00 85 1059.3
20260903014213 17 180 19.3 0.0 0.00 0.00 0.00 85 1059.3
20260903014059 17 135 16.1 0.0 0.00 0.00 0.00 85 1059.3
20260903013945 17 225 9.7 0.0 0.00 0.00 0.00 85 1059.3
20260903013831 17 202 6.4 0.0 0.00 0.00 0.00 85 1059.3
20260903013725 17 225 11.3 0.0 0.00 0.00 0.00 85 1059.5
20260903013619 17 180 11.3 0.0 0.00 0.00 0.00 85 1059.3
20260903013513 17 270 0.0 0.0 0.00 0.00 0.00 85 1059.5
20260903013407 17 202 9.7 0.0 0.00 0.00 0.00 85 1059.4
20260903013302 17 180 12.9 0.0 0.00 0.00 0.00 85 1059.5
20260903013155 17 247 11.3 0.0 0.00 0.00 0.00 85 1059.5
20260903013050 17 202 8.0 0.0 0.00 0.00 0.00 86 1059.5
20260903012944 17 135 0.0 0.0 0.00 0.00 0.00 86 1059.5
20260903012825 17 270 8.0 0.0 0.00 0.00 0.00 86 1059.5
20260903012720 17 180 0.0 0.0 0.00 0.00 0.00 86 1059.5
20260903012615 17 247 17.7 0.0 0.00 0.00 0.00 86 1059.6
20260903012508 17 247 6.4 0.0 0.00 0.00 0.00 86 1059.5
20260903012347 17 247 9.7 0.0 0.00 0.00 0.00 86 1059.6
20260903012242 17 180 20.9 0.0 0.00 0.00 0.00 86 1059.6
20260903012120 17 225 6.4 0.0 0.00 0.00 0.00 86 1059.5
20260903011952 17 157 8.0 0.0 0.00 0.00 0.00 86 1059.5
20260903011847 17 247 3.2 0.0 0.00 0.00 0.00 86 1059.6
20260903011735 17 202 8.0 0.0 0.00 0.00 0.00 86 1059.6
20260903011620 17 225 16.1 0.0 0.00 0.00 0.00 86 1059.6
20260903011507 17 157 9.7 0.0 0.00 0.00 0.00 86 1059.6
20260903011337 17 157 3.2 0.0 0.00 0.00 0.00 86 1059.7
20260903011218 17 202 9.7 0.0 0.00 0.00 0.00 86 1059.7
20260903011112 17 202 16.1 0.0 0.00 0.00 0.00 86 1059.7
20260903011000 17 225 3.2 0.0 0.00 0.00 0.00 86 1059.7
20260903010854 17 180 9.7 0.0 0.00 0.00 0.00 86 1059.8
20260903010741 17 202 4.8 0.0 0.00 0.00 0.00 86 1059.8
20260903010636 17 202 0.0 0.0 0.00 0.00 0.00 86 1059.8
20260903010523 17 202 17.7 0.0 0.00 0.00 0.00 85 1059.8
20260903010416 17 202 9.7 0.0 0.00 0.00 0.00 86 1059.9
20260903010301 17 180 0.0 0.0 0.00 0.00 0.00 86 1059.9
20260903010002 17 180 4.8 0.0 0.00 0.00 0.00 86 1059.9
20260903005855 17 180 11.3 0.0 0.00 0.00 0.00 86 1059.9
20260903005741 17 202 14.5 0.0 0.00 0.00 0.00 86 1059.9
20260903005634 17 225 9.7 0.0 0.00 0.00 0.00 86 1060.0
20260903005529 17 202 11.3 0.0 0.00 0.00 0.00 86 1060.0
20260903005421 17 225 4.8 0.0 0.00 0.00 0.00 85 1060.0
20260903005302 17 225 9.7 0.0 0.00 0.00 0.00 85 1060.0
20260903005154 17 202 12.9 0.0 0.00 0.00 0.00 85 1060.0
20260903005039 17 247 17.7 0.0 0.00 0.00 0.00 85 1060.0
20260903004925 17 157 16.1 0.0 0.00 0.00 0.00 85 1060.0
20260903004819 17 180 16.1 0.0 0.00 0.00 0.00 85 1060.1
20260903004705 17 180 8.0 0.0 0.00 0.00 0.00 85 1060.0
20260903004543 17 202 11.3 0.0 0.00 0.00 0.00 85 1060.1
20260903004429 17 135 4.8 0.0 0.00 0.00 0.00 85 1060.3
20260903004322 17 202 11.3 0.0 0.00 0.00 0.00 85 1060.2
20260903004217 17 202 14.5 0.0 0.00 0.00 0.00 85 1060.3
20260903004111 17 247 14.5 0.0 0.00 0.00 0.00 85 1060.3
20260903004004 17 157 9.7 0.0 0.00 0.00 0.00 85 1060.4
20260903003843 17 225 11.3 0.0 0.00 0.00 0.00 84 1060.3
20260903003728 17 202 3.2 0.0 0.00 0.00 0.00 84 1060.3
20260903003613 17 202 19.3 0.0 0.00 0.00 0.00 84 1060.4
20260903003508 17 202 11.3 0.0 0.00 0.00 0.00 84 1060.3
20260903003402 17 202 19.3 0.0 0.00 0.00 0.00 84 1060.4
20260903003255 17 157 4.8 0.0 0.00 0.00 0.00 84 1060.4
20260903003149 17 202 19.3 0.0 0.00 0.00 0.00 84 1060.4
20260903003029 17 202 8.0 0.0 0.00 0.00 0.00 84 1060.4
20260903002921 17 225 20.9 0.0 0.00 0.00 0.00 84 1060.5
20260903002807 17 180 20.9 0.0 0.00 0.00 0.00 84 1060.4
20260903002652 17 225 9.7 0.0 0.00 0.00 0.00 84 1060.5
20260903002532 17 202 12.9 0.0 0.00 0.00 0.00 85 1060.5
20260903002424 17 157 8.0 0.0 0.00 0.00 0.00 85 1060.5
20260903002311 17 225 11.3 0.0 0.00 0.00 0.00 84 1060.5
20260903002204 17 247 4.8 0.0 0.00 0.00 0.00 85 1060.5
20260903002048 17 270 9.7 0.0 0.00 0.00 0.00 85 1060.6
20260903001937 17 202 11.3 0.0 0.00 0.00 0.00 85 1060.6
20260903001829 17 225 9.7 0.0 0.00 0.00 0.00 85 1060.5
20260903001714 17 135 4.8 0.0 0.00 0.00 0.00 85 1060.6
20260903001553 17 202 4.8 0.0 0.00 0.00 0.00 85 1060.5
20260903001447 17 270 0.0 0.0 0.00 0.00 0.00 85 1060.6
20260903001339 17 225 11.3 0.0 0.00 0.00 0.00 85 1060.6
20260903001218 17 180 6.4 0.0 0.00 0.00 0.00 85 1060.6
20260903001104 17 202 0.0 0.0 0.00 0.00 0.00 85 1060.7
20260903000949 17 202 12.9 0.0 0.00 0.00 0.00 85 1060.6
20260903000818 17 180 8.0 0.0 0.00 0.00 0.00 85 1060.6
20260903000705 17 225 9.7 0.0 0.00 0.00 0.00 85 1060.7
20260903000558 17 180 8.0 0.0 0.00 0.00 0.00 85 1060.7
20260903000454 17 202 8.0 0.0 0.00 0.00 0.00 85 1060.7
20260903000332 17 202 11.3 0.0 0.00 0.00 0.00 85 1060.7
20260903000226 17 202 11.3 0.0 0.00 0.00 0.00 85 1060.8
20260903000110 17 202 17.7 0.0 0.00 0.00 0.00 85 1060.7
20260902235955 17 202 0.0 0.0 0.00 0.00 0.00 85 1060.8
20260902235833 17 180 6.4 0.0 0.00 0.00 0.00 85 1060.8
20260902235727 17 157 0.0 0.0 0.00 0.00 0.00 85 1060.8
20260902235613 17 180 6.4 0.0 0.00 0.00 0.00 85 1060.7
20260902235459 17 202 6.4 0.0 0.00 0.00 0.00 85 1060.8
20260902235352 17 225 12.9 0.0 0.00 0.00 0.00 85 1060.7
20260902235230 17 225 0.0 0.0 0.00 0.00 0.00 85 1060.7
20260902235108 17 180 0.0 0.0 0.00 0.00 0.00 85 1060.8
20260902235002 17 180 4.8 0.0 0.00 0.00 0.00 84 1060.7
20260902234856 17 202 9.7 0.0 0.00 0.00 0.00 84 1060.9
20260902234750 17 202 6.4 0.0 0.00 0.00 0.00 84 1060.8
20260902234644 17 202 8.0 0.0 0.00 0.00 0.00 84 1060.8
20260902234532 17 202 8.0 0.0 0.00 0.00 0.00 84 1060.9
20260902234424 17 180 4.8 0.0 0.00 0.00 0.00 84 1060.9
20260902234305 17 180 0.0 0.0 0.00 0.00 0.00 84 1060.9
20260902234156 17 202 0.0 0.0 0.00 0.00 0.00 84 1060.9
20260902234042 17 225 9.7 0.0 0.00 0.00 0.00 84 1060.9
20260902233936 17 247 8.0 0.0 0.00 0.00 0.00 84 1060.9
20260902233821 17 180 6.4 0.0 0.00 0.00 0.00 84 1060.9
20260902233659 17 202 0.0 0.0 0.00 0.00 0.00 84 1060.9
20260902233548 17 180 3.2 0.0 0.00 0.00 0.00 84 1061.0
20260902233442 17 180 11.3 0.0 0.00 0.00 0.00 84 1061.0
20260902233334 17 225 8.0 0.0 0.00 0.00 0.00 84 1061.0
20260902233227 17 180 9.7 0.0 0.00 0.00 0.00 84 1061.0
20260902233114 17 202 0.0 0.0 0.00 0.00 0.00 84 1061.0
20260902233001 17 202 8.0 0.0 0.00 0.00 0.00 84 1061.1
20260902232839 17 180 8.0 0.0 0.00 0.00 0.00 84 1061.1
20260902232734 17 225 0.0 0.0 0.00 0.00 0.00 84 1061.1
20260902232628 17 202 0.0 0.0 0.00 0.00 0.00 84 1061.1
20260902232515 17 202 9.7 0.0 0.00 0.00 0.00 84 1061.1
20260902232410 17 180 9.7 0.0 0.00 0.00 0.00 84 1061.1
20260902232256 17 180 8.0 0.0 0.00 0.00 0.00 84 1061.2
20260902232143 17 225 19.3 0.0 0.00 0.00 0.00 84 1061.1
20260902232038 17 180 3.2 0.0 0.00 0.00 0.00 84 1061.1
20260902231924 17 270 0.0 0.0 0.00 0.00 0.00 84 1061.1
20260902231801 17 202 3.2 0.0 0.00 0.00 0.00 84 1061.2
20260902231648 17 157 6.4 0.0 0.00 0.00 0.00 84 1061.2
20260902231533 17 180 8.0 0.0 0.00 0.00 0.00 84 1061.2
20260902231403 17 225 0.0 0.0 0.00 0.00 0.00 84 1061.2
20260902231249 17 180 9.7 0.0 0.00 0.00 0.00 84 1061.3
20260902231144 17 202 8.0 0.0 0.00 0.00 0.00 84 1061.2
20260902231037 17 270 9.7 0.0 0.00 0.00 0.00 84 1061.2
20260902230932 17 225 8.0 0.0 0.00 0.00 0.00 84 1061.3
20260902230825 17 202 11.3 0.0 0.00 0.00 0.00 84 1061.2
20260902230720 17 202 8.0 0.0 0.00 0.00 0.00 84 1061.2
20260902230614 17 225 4.8 0.0 0.00 0.00 0.00 84 1061.3
20260902230507 17 225 11.3 0.0 0.00 0.00 0.00 84 1061.3
20260902230353 17 202 0.0 0.0 0.00 0.00 0.00 84 1061.2
20260902230231 17 202 9.7 0.0 0.00 0.00 0.00 84 1061.3
20260902230117 17 225 9.7 0.0 0.00 0.00 0.00 83 1061.3
20260902230011 17 180 12.9 0.0 0.00 0.00 0.00 84 1061.4
20260902225905 17 180 0.0 0.0 0.00 0.00 0.00 84 1061.3
20260902225758 17 202 4.8 0.0 0.00 0.00 0.00 84 1061.5
20260902225644 17 180 14.5 0.0 0.00 0.00 0.00 84 1061.5
20260902225529 17 202 0.0 0.0 0.00 0.00 0.00 83 1061.3
20260902225409 17 180 8.0 0.0 0.00 0.00 0.00 83 1061.5
20260902225306 17 202 11.3 0.0 0.00 0.00 0.00 83 1061.4
20260902225158 17 247 6.4 0.0 0.00 0.00 0.00 83 1061.5
20260902225053 17 225 4.8 0.0 0.00 0.00 0.00 83 1061.6
20260902224948 17 180 6.4 0.0 0.00 0.00 0.00 83 1061.4
20260902224825 17 202 8.0 0.0 0.00 0.00 0.00 83 1061.5
20260902224715 17 202 8.0 0.0 0.00 0.00 0.00 83 1061.6
20260902224607 17 180 6.4 0.0 0.00 0.00 0.00 83 1061.6
20260902224454 17 225 9.7 0.0 0.00 0.00 0.00 83 1061.6
20260902224349 17 202 8.0 0.0 0.00 0.00 0.00 84 1061.6
20260902224227 17 225 14.5 0.0 0.00 0.00 0.00 83 1061.7
20260902224121 17 202 0.0 0.0 0.00 0.00 0.00 83 1061.6
20260902224016 17 202 0.0 0.0 0.00 0.00 0.00 84 1061.7
20260902223902 17 180 16.1 0.0 0.00 0.00 0.00 84 1061.7
20260902223748 17 225 3.2 0.0 0.00 0.00 0.00 84 1061.7
20260902223634 17 180 19.3 0.0 0.00 0.00 0.00 84 1061.7
20260902223520 17 157 3.2 0.0 0.00 0.00 0.00 84 1061.7
20260902223406 17 202 8.0 0.0 0.00 0.00 0.00 84 1061.7
20260902223253 17 270 4.8 0.0 0.00 0.00 0.00 84 1061.8
20260902223147 17 270 0.0 0.0 0.00 0.00 0.00 84 1061.8
20260902223040 17 225 11.3 0.0 0.00 0.00 0.00 84 1061.7
20260902222911 17 202 16.1 0.0 0.00 0.00 0.00 84 1061.7
20260902222757 17 225 12.9 0.0 0.00 0.00 0.00 84 1061.7
20260902222634 17 202 12.9 0.0 0.00 0.00 0.00 84 1061.8
20260902222513 17 202 3.2 0.0 0.00 0.00 0.00 84 1061.7
20260902222351 17 225 12.9 0.0 0.00 0.00 0.00 84 1061.8
20260902222236 17 180 8.0 0.0 0.00 0.00 0.00 84 1061.9
20260902222123 17 225 3.2 0.0 0.00 0.00 0.00 84 1062.0
20260902222010 17 202 0.0 0.0 0.00 0.00 0.00 84 1061.8
20260902221849 17 225 12.9 0.0 0.00 0.00 0.00 84 1061.9
20260902221745 17 202 9.7 0.0 0.00 0.00 0.00 84 1061.9
20260902221639 17 247 9.7 0.0 0.00 0.00 0.00 84 1062.0
20260902221525 17 180 9.7 0.0 0.00 0.00 0.00 84 1061.9
20260902221405 17 225 8.0 0.0 0.00 0.00 0.00 83 1062.0
20260902221257 17 202 0.0 0.0 0.00 0.00 0.00 83 1062.0
20260902221136 17 202 4.8 0.0 0.00 0.00 0.00 83 1062.0
20260902221030 17 180 4.8 0.0 0.00 0.00 0.00 83 1061.9
20260902220916 17 202 0.0 0.0 0.00 0.00 0.00 83 1061.9
20260902220804 17 202 6.4 0.0 0.00 0.00 0.00 83 1061.9
20260902220657 17 202 4.8 0.0 0.00 0.00 0.00 83 1061.9
20260902220544 17 202 0.0 0.0 0.00 0.00 0.00 83 1061.9
20260902220431 17 202 4.8 0.0 0.00 0.00 0.00 84 1061.8
20260902220326 17 180 8.0 0.0 0.00 0.00 0.00 84 1061.9
20260902220213 17 180 8.0 0.0 0.00 0.00 0.00 84 1062.0
20260902220101 16 225 0.0 0.0 0.00 0.00 0.00 84 1061.8
20260902215954 16 225 9.7 0.0 0.00 0.00 0.00 84 1061.8
20260902215833 16 202 9.7 0.0 0.00 0.00 0.00 84 1061.9
20260902215712 16 225 11.3 0.0 0.00 0.00 0.00 84 1061.9
20260902215559 16 202 9.7 0.0 0.00 0.00 0.00 84 1061.9
20260902215446 16 202 9.7 0.0 0.00 0.00 0.00 84 1062.0
20260902215341 16 180 0.0 0.0 0.00 0.00 0.00 84 1061.9
20260902215219 16 202 12.9 0.0 0.00 0.00 0.00 84 1062.0
20260902215058 16 180 9.7 0.0 0.00 0.00 0.00 84 1062.1
20260902214939 16 202 3.2 0.0 0.00 0.00 0.00 84 1061.9
20260902214832 16 225 8.0 0.0 0.00 0.00 0.00 84 1061.9
20260902214729 16 202 8.0 0.0 0.00 0.00 0.00 84 1061.8
20260902214621 16 202 6.4 0.0 0.00 0.00 0.00 84 1062.0
20260902214509 16 202 6.4 0.0 0.00 0.00 0.00 83 1062.0
20260902214404 16 180 0.0 0.0 0.00 0.00 0.00 83 1061.9
20260902214253 16 180 3.2 0.0 0.00 0.00 0.00 83 1061.9
20260902214145 16 225 0.0 0.0 0.00 0.00 0.00 83 1061.9
20260902214033 16 180 6.4 0.0 0.00 0.00 0.00 83 1062.0
20260902213920 16 157 9.7 0.0 0.00 0.00 0.00 83 1061.9
20260902213750 16 202 6.4 0.0 0.00 0.00 0.00 83 1062.1
20260902213630 16 202 9.7 0.0 0.00 0.00 0.00 83 1062.0
20260902213523 16 202 6.4 0.0 0.00 0.00 0.00 82 1062.0
20260902213411 16 225 9.7 0.0 0.00 0.00 0.00 82 1062.0
20260902213305 17 202 0.0 0.0 0.00 0.00 0.00 82 1062.1
20260902213145 17 202 11.3 0.0 0.00 0.00 0.00 82 1062.1
20260902213031 16 202 4.8 0.0 0.00 0.00 0.00 82 1062.0
20260902212856 17 202 9.7 0.0 0.00 0.00 0.00 82 1062.0
20260902212749 17 202 0.0 0.0 0.00 0.00 0.00 82 1062.1
20260902212627 17 202 3.2 0.0 0.00 0.00 0.00 82 1062.0
20260902212458 17 202 6.4 0.0 0.00 0.00 0.00 82 1062.1
20260902212353 17 202 6.4 0.0 0.00 0.00 0.00 82 1062.1
20260902212240 17 202 3.2 0.0 0.00 0.00 0.00 82 1062.1
20260902212127 17 225 0.0 0.0 0.00 0.00 0.00 83 1062.1
20260902212014 17 225 3.2 0.0 0.00 0.00 0.00 83 1062.0
20260902211909 17 202 8.0 0.0 0.00 0.00 0.00 83 1062.1
20260902211756 17 180 0.0 0.0 0.00 0.00 0.00 83 1062.1
20260902211649 17 225 8.0 0.0 0.00 0.00 0.00 83 1062.1
20260902211539 17 225 3.2 0.0 0.00 0.00 0.00 83 1062.1
20260902211433 17 202 9.7 0.0 0.00 0.00 0.00 83 1062.0
20260902211327 17 202 8.0 0.0 0.00 0.00 0.00 83 1062.1
20260902211215 17 202 6.4 0.0 0.00 0.00 0.00 83 1062.2
20260902211053 17 202 6.4 0.0 0.00 0.00 0.00 83 1062.1
20260902210940 17 202 9.7 0.0 0.00 0.00 0.00 83 1062.1
20260902210827 17 180 4.8 0.0 0.00 0.00 0.00 83 1062.0
20260902210714 17 180 8.0 0.0 0.00 0.00 0.00 83 1062.1
20260902210601 17 202 6.4 0.0 0.00 0.00 0.00 83 1062.1
20260902210455 17 225 3.2 0.0 0.00 0.00 0.00 83 1062.1
20260902210344 17 180 6.4 0.0 0.00 0.00 0.00 83 1062.2
20260902210229 17 202 0.0 0.0 0.00 0.00 0.00 83 1062.1
20260902210108 17 180 6.4 0.0 0.00 0.00 0.00 82 1062.1
20260902205955 17 202 8.0 0.0 0.00 0.00 0.00 82 1062.2
20260902205834 17 180 0.0 0.0 0.00 0.00 0.00 82 1062.1
20260902205721 17 202 4.8 0.0 0.00 0.00 0.00 82 1062.2
20260902205617 17 202 0.0 0.0 0.00 0.00 0.00 82 1062.2
20260902205510 17 202 0.0 0.0 0.00 0.00 0.00 82 1062.2
20260902205357 17 202 0.0 0.0 0.00 0.00 0.00 82 1062.2
20260902205244 17 202 0.0 0.0 0.00 0.00 0.00 82 1062.1
20260902205134 17 202 0.0 0.0 0.00 0.00 0.00 82 1062.2
20260902205019 17 225 6.4 0.0 0.00 0.00 0.00 82 1062.1
20260902204913 17 180 4.8 0.0 0.00 0.00 0.00 82 1062.3
20260902204751 17 202 0.0 0.0 0.00 0.00 0.00 82 1062.3
20260902204640 17 202 6.4 0.0 0.00 0.00 0.00 82 1062.3
20260902204517 17 180 8.0 0.0 0.00 0.00 0.00 82 1062.3
20260902204359 17 180 4.8 0.0 0.00 0.00 0.00 82 1062.3
20260902204252 17 202 0.0 0.0 0.00 0.00 0.00 82 1062.3
20260902204146 17 202 6.4 0.0 0.00 0.00 0.00 82 1062.3
20260902204033 17 202 0.0 0.0 0.00 0.00 0.00 82 1062.3
20260902203922 17 157 0.0 0.0 0.00 0.00 0.00 82 1062.3
20260902203815 17 225 4.8 0.0 0.00 0.00 0.00 82 1062.4
20260902203701 17 202 0.0 0.0 0.00 0.00 0.00 82 1062.4
20260902203541 17 225 0.0 0.0 0.00 0.00 0.00 82 1062.3
20260902203435 17 202 0.0 0.0 0.00 0.00 0.00 82 1062.5
20260902203314 17 202 0.0 0.0 0.00 0.00 0.00 82 1062.4
20260902203153 17 202 0.0 0.0 0.00 0.00 0.00 82 1062.4
20260902203048 17 180 0.0 0.0 0.00 0.00 0.00 82 1062.4
20260902202918 17 247 0.0 0.0 0.00 0.00 0.00 82 1062.4
20260902202807 17 180 4.8 0.0 0.00 0.00 0.00 82 1062.5
20260902202701 17 180 0.0 0.0 0.00 0.00 0.00 82 1062.4
20260902202555 17 247 0.0 0.0 0.00 0.00 0.00 82 1062.4
20260902202434 17 247 0.0 0.0 0.00 0.00 0.00 82 1062.4
20260902202313 17 270 0.0 0.0 0.00 0.00 0.00 82 1062.5
20260902202152 17 225 0.0 0.0 0.00 0.00 0.00 82 1062.5
20260902202030 17 225 0.0 0.0 0.00 0.00 0.00 82 1062.5
20260902201909 17 225 0.0 0.0 0.00 0.00 0.00 82 1062.5
20260902201748 17 225 0.0 0.0 0.00 0.00 0.00 82 1062.6
20260902201627 17 225 0.0 0.0 0.00 0.00 0.00 82 1062.5
20260902201516 17 247 0.0 0.0 0.00 0.00 0.00 82 1062.5
20260902201408 17 202 3.2 0.0 0.00 0.00 0.00 82 1062.5
20260902201256 17 247 0.0 0.0 0.00 0.00 0.00 82 1062.6
20260902201136 17 270 0.0 0.0 0.00 0.00 0.00 82 1062.5
20260902201032 17 202 0.0 0.0 0.00 0.00 0.00 82 1062.6
20260902200925 17 247 0.0 0.0 0.00 0.00 0.00 82 1062.5
20260902200819 17 247 3.2 0.0 0.00 0.00 0.00 82 1062.5
20260902200658 17 247 0.0 0.0 0.00 0.00 0.00 82 1062.6
20260902200536 17 225 0.0 0.0 0.00 0.00 0.00 82 1062.6
20260902200416 17 247 6.4 0.0 0.00 0.00 0.00 82 1062.6
20260902200309 17 247 3.2 0.0 0.00 0.00 0.00 82 1062.6
20260902200133 17 225 3.2 0.0 0.00 0.00 0.00 82 1062.7
20260902200012 17 225 0.0 0.0 0.00 0.00 0.00 82 1062.6
20260902195842 17 247 0.0 0.0 0.00 0.00 0.00 82 1062.6
20260902195722 17 292 8.0 0.0 0.00 0.00 0.00 82 1062.7
20260902195616 17 225 3.2 0.0 0.00 0.00 0.00 82 1062.6
20260902195358 17 202 6.4 0.0 0.00 0.00 0.00 82 1062.7
20260902195245 17 270 0.0 0.0 0.00 0.00 0.00 82 1062.6
20260902195124 17 247 0.0 0.0 0.00 0.00 0.00 82 1062.7
20260902195013 17 270 0.0 0.0 0.00 0.00 0.00 82 1062.6
20260902194905 17 225 14.5 0.0 0.00 0.00 0.00 82 1062.7
20260902194746 17 247 0.0 0.0 0.00 0.00 0.00 82 1062.6
20260902194639 17 270 0.0 0.0 0.00 0.00 0.00 82 1062.6
20260902194518 17 225 1.6 0.0 0.00 0.00 0.00 82 1062.6
20260902194404 17 270 0.0 0.0 0.00 0.00 0.00 82 1062.6
20260902194252 17 270 3.2 0.0 0.00 0.00 0.00 82 1062.6
20260902194138 17 270 6.4 0.0 0.00 0.00 0.00 82 1062.6
20260902194019 17 270 6.4 0.0 0.00 0.00 0.00 82 1062.5
20260902193912 17 270 4.8 0.0 0.00 0.00 0.00 82 1062.6
20260902193754 17 225 4.8 0.0 0.00 0.00 0.00 82 1062.6
20260902193648 17 247 4.8 0.0 0.00 0.00 0.00 82 1062.6
20260902193541 17 225 0.0 0.0 0.00 0.00 0.00 82 1062.6
20260902193420 17 247 0.0 0.0 0.00 0.00 0.00 82 1062.6
20260902193300 17 247 0.0 0.0 0.00 0.00 0.00 82 1062.5
20260902193154 17 315 4.8 0.0 0.00 0.00 0.00 82 1062.6
20260902193043 17 270 6.4 0.0 0.00 0.00 0.00 82 1062.5
20260902192935 17 270 0.0 0.0 0.00 0.00 0.00 83 1062.7
20260902192806 17 270 0.0 0.0 0.00 0.00 0.00 83 1062.6
20260902192654 17 247 4.8 0.0 0.00 0.00 0.00 83 1062.6
20260902192548 17 270 0.0 0.0 0.00 0.00 0.00 83 1062.6
20260902192426 17 247 0.0 0.0 0.00 0.00 0.00 83 1062.7
20260902192307 17 247 0.0 0.0 0.00 0.00 0.00 83 1062.7
20260902192136 17 247 0.0 0.0 0.00 0.00 0.00 83 1062.7
20260902192023 17 247 0.0 0.0 0.00 0.00 0.00 83 1062.7
20260902191910 17 292 8.0 0.0 0.00 0.00 0.00 83 1062.7
20260902191748 17 225 3.2 0.0 0.00 0.00 0.00 83 1062.6
20260902191637 17 270 8.0 0.0 0.00 0.00 0.00 83 1062.6
20260902191530 17 225 0.0 0.0 0.00 0.00 0.00 83 1062.7
20260902191401 17 270 8.0 0.0 0.00 0.00 0.00 83 1062.7
20260902191242 17 270 6.4 0.0 0.00 0.00 0.00 83 1062.7
20260902191137 17 270 3.2 0.0 0.00 0.00 0.00 83 1062.7
20260902191032 17 270 6.4 0.0 0.00 0.00 0.00 83 1062.6
20260902190925 17 270 0.0 0.0 0.00 0.00 0.00 83 1062.7
20260902190820 17 247 0.0 0.0 0.00 0.00 0.00 83 1062.7
20260902190707 17 247 6.4 0.0 0.00 0.00 0.00 83 1062.7
20260902190556 17 247 0.0 0.0 0.00 0.00 0.00 83 1062.7
20260902190449 17 202 0.0 0.0 0.00 0.00 0.00 83 1062.7
20260902190326 18 270 4.8 0.0 0.00 0.00 0.00 83 1062.7
20260902190206 18 247 6.4 0.0 0.00 0.00 0.00 83 1062.7
20260902190053 18 247 9.7 0.0 0.00 0.00 0.00 83 1062.8
20260902185941 18 270 8.0 0.0 0.00 0.00 0.00 83 1062.8
20260902185837 18 270 6.4 0.0 0.00 0.00 0.00 83 1062.7
20260902185724 18 315 11.3 0.0 0.00 0.00 0.00 83 1062.8
20260902185616 18 270 6.4 0.0 0.00 0.00 0.00 83 1062.8
20260902185455 18 270 3.2 0.0 0.00 0.00 0.00 83 1062.8
20260902185336 18 270 9.7 0.0 0.00 0.00 0.00 83 1062.8
20260902185231 18 270 8.0 0.0 0.00 0.00 0.00 83 1062.8
20260902185117 18 270 8.0 0.0 0.00 0.00 0.00 83 1062.8
20260902185003 18 270 9.7 0.0 0.00 0.00 0.00 83 1062.8
20260902184842 18 270 0.0 0.0 0.00 0.00 0.00 83 1062.8
20260902184737 18 247 8.0 0.0 0.00 0.00 0.00 83 1062.7
20260902184623 18 270 8.0 0.0 0.00 0.00 0.00 83 1062.8
20260902184502 18 270 0.0 0.0 0.00 0.00 0.00 83 1062.7
20260902184342 18 247 8.0 0.0 0.00 0.00 0.00 83 1062.8
20260902184227 18 270 8.0 0.0 0.00 0.00 0.00 83 1062.7
20260902184109 18 292 4.8 0.0 0.00 0.00 0.00 83 1062.7
20260902184004 18 270 0.0 0.0 0.00 0.00 0.00 83 1062.8
20260902183858 18 292 6.4 0.0 0.00 0.00 0.00 83 1062.8
20260902183754 18 247 6.4 0.0 0.00 0.00 0.00 83 1062.8
20260902183638 18 270 3.2 0.0 0.00 0.00 0.00 83 1062.8
20260902183527 18 292 0.0 0.0 0.00 0.00 0.00 83 1062.8
20260902183420 18 315 9.7 0.0 0.00 0.00 0.00 83 1062.8
20260902183301 18 292 9.7 0.0 0.00 0.00 0.00 83 1062.8
20260902183146 18 292 9.7 0.0 0.00 0.00 0.00 83 1062.9
20260902183033 18 270 3.2 0.0 0.00 0.00 0.00 83 1063.0
20260902182912 18 270 0.0 0.0 0.00 0.00 0.00 83 1062.8
20260902182751 18 270 0.0 0.0 0.00 0.00 0.00 83 1062.8
20260902182646 18 292 8.0 0.0 0.00 0.00 0.00 83 1062.7
20260902182540 18 292 3.2 0.0 0.00 0.00 0.00 82 1062.7
20260902182427 18 270 3.2 0.0 0.00 0.00 0.00 82 1062.6
20260902182258 18 270 0.0 0.0 0.00 0.00 0.00 82 1062.6
20260902182141 18 270 0.0 0.0 0.00 0.00 0.00 82 1062.6
20260902182034 18 292 4.8 0.0 0.00 0.00 0.00 82 1062.5
20260902181919 18 270 3.2 0.0 0.00 0.00 0.00 81 1062.6
20260902181805 18 270 0.0 0.0 0.00 0.00 0.00 81 1062.5
20260902181637 18 315 4.8 0.0 0.00 0.00 0.00 81 1062.6
20260902181523 18 225 0.0 0.0 0.00 0.00 0.00 81 1062.6
20260902181402 18 270 0.0 0.0 0.00 0.00 0.00 81 1062.6
20260902181240 18 270 0.0 0.0 0.00 0.00 0.00 81 1062.6
20260902181119 18 270 0.0 0.0 0.00 0.00 0.00 81 1062.6
20260902181000 18 270 1.6 0.0 0.00 0.00 0.00 81 1062.5
20260902180854 18 270 8.0 0.0 0.00 0.00 0.00 80 1062.5
20260902180748 18 270 0.0 0.0 0.00 0.00 0.00 80 1062.4
20260902180634 18 270 12.9 0.0 0.00 0.00 0.00 80 1062.5
20260902180514 18 270 6.4 0.0 0.00 0.00 0.00 80 1062.5
20260902180359 18 270 4.8 0.0 0.00 0.00 0.00 79 1062.5
20260902180246 18 270 8.0 0.0 0.00 0.00 0.00 79 1062.5
20260902180132 18 270 0.0 0.0 0.00 0.00 0.00 79 1062.5
20260902180018 18 315 9.7 0.0 0.00 0.00 0.00 79 1062.5
20260902175904 18 292 6.4 0.0 0.00 0.00 0.00 79 1062.5
20260902175744 18 315 11.3 0.0 0.00 0.00 0.00 78 1062.5
20260902175630 18 270 11.3 0.0 0.00 0.00 0.00 78 1062.5
20260902175517 18 292 0.0 0.0 0.00 0.00 0.00 78 1062.5
20260902175403 18 270 4.8 0.0 0.00 0.00 0.00 78 1062.5
20260902175234 18 292 6.4 0.0 0.00 0.00 0.00 78 1062.5
20260902175113 18 292 6.4 0.0 0.00 0.00 0.00 77 1062.5
20260902174944 18 315 9.7 0.0 0.00 0.00 0.00 77 1062.5
20260902174830 18 247 6.4 0.0 0.00 0.00 0.00 76 1062.6
20260902174701 18 292 0.0 0.0 0.00 0.00 0.00 76 1062.6
20260902174549 18 315 11.3 0.0 0.00 0.00 0.00 76 1062.6
20260902174435 18 270 8.0 0.0 0.00 0.00 0.00 75 1062.6
20260902174322 18 292 16.1 0.0 0.00 0.00 0.00 75 1062.6
20260902174209 18 315 8.0 0.0 0.00 0.00 0.00 74 1062.7
20260902174104 18 292 8.0 0.0 0.00 0.00 0.00 75 1062.7
20260902173952 18 247 6.4 0.0 0.00 0.00 0.00 74 1062.6
20260902173846 18 247 9.7 0.0 0.00 0.00 0.00 74 1062.7
20260902173716 18 270 17.7 0.0 0.00 0.00 0.00 74 1062.7
20260902173604 18 292 6.4 0.0 0.00 0.00 0.00 74 1062.7
20260902173458 18 270 6.4 0.0 0.00 0.00 0.00 74 1062.7
20260902173329 18 315 4.8 0.0 0.00 0.00 0.00 74 1062.6
20260902173217 18 247 12.9 0.0 0.00 0.00 0.00 74 1062.6
20260902173110 18 270 6.4 0.0 0.00 0.00 0.00 74 1062.6
20260902172949 18 292 12.9 0.0 0.00 0.00 0.00 74 1062.6
20260902172829 19 225 8.0 0.0 0.00 0.00 0.00 73 1062.6
20260902172716 18 315 9.7 0.0 0.00 0.00 0.00 73 1062.6
20260902172552 18 247 14.5 0.0 0.00 0.00 0.00 73 1062.6
20260902172433 19 270 11.3 0.0 0.00 0.00 0.00 73 1062.6
20260902172325 19 292 17.7 0.0 0.00 0.00 0.00 73 1062.6
20260902172211 19 315 6.4 0.0 0.00 0.00 0.00 73 1062.6
20260902172105 19 292 4.8 0.0 0.00 0.00 0.00 73 1062.6
20260902171952 19 315 8.0 0.0 0.00 0.00 0.00 73 1062.6
20260902171848 19 270 8.0 0.0 0.00 0.00 0.00 73 1062.6
20260902171733 19 247 14.5 0.0 0.00 0.00 0.00 73 1062.6
20260902171627 19 270 11.3 0.0 0.00 0.00 0.00 73 1062.6
20260902171522 19 292 8.0 0.0 0.00 0.00 0.00 73 1062.6
20260902171415 19 315 14.5 0.0 0.00 0.00 0.00 73 1062.6
20260902171301 19 247 4.8 0.0 0.00 0.00 0.00 73 1062.6
20260902171148 19 292 14.5 0.0 0.00 0.00 0.00 73 1062.6
20260902171034 19 292 11.3 0.0 0.00 0.00 0.00 73 1062.6
20260902170915 19 315 6.4 0.0 0.00 0.00 0.00 72 1062.5
20260902170808 19 315 9.7 0.0 0.00 0.00 0.00 72 1062.5
20260902170648 19 292 9.7 0.0 0.00 0.00 0.00 72 1062.6
20260902170542 19 337 11.3 0.0 0.00 0.00 0.00 72 1062.6
20260902170421 19 315 11.3 0.0 0.00 0.00 0.00 72 1062.6
20260902170259 19 247 17.7 0.0 0.00 0.00 0.00 71 1062.6
20260902170146 19 270 0.0 0.0 0.00 0.00 0.00 71 1062.7
20260902170036 19 292 11.3 0.0 0.00 0.00 0.00 71 1062.7
20260902165928 19 315 8.0 0.0 0.00 0.00 0.00 72 1062.7
20260902165815 19 270 9.7 0.0 0.00 0.00 0.00 73 1062.6
20260902165700 19 315 9.7 0.0 0.00 0.00 0.00 74 1062.6
20260902165541 19 270 9.7 0.0 0.00 0.00 0.00 74 1062.6
20260902165436 19 315 6.4 0.0 0.00 0.00 0.00 74 1062.6
20260902165331 20 292 8.0 0.0 0.00 0.00 0.00 74 1062.6
20260902165225 20 270 6.4 0.0 0.00 0.00 0.00 74 1062.7
20260902165111 20 292 12.9 0.0 0.00 0.00 0.00 74 1062.7
20260902165000 20 247 8.0 0.0 0.00 0.00 0.00 74 1062.6
20260902164854 20 292 8.0 0.0 0.00 0.00 0.00 74 1062.7
20260902164742 20 292 4.8 0.0 0.00 0.00 0.00 73 1062.6
20260902164635 20 270 9.7 0.0 0.00 0.00 0.00 73 1062.7
20260902164523 20 247 9.7 0.0 0.00 0.00 0.00 73 1062.7
20260902164407 20 247 4.8 0.0 0.00 0.00 0.00 73 1062.7
20260902164254 20 247 9.7 0.0 0.00 0.00 0.00 73 1062.7
20260902164141 20 292 4.8 0.0 0.00 0.00 0.00 73 1062.7
20260902164037 20 315 8.0 0.0 0.00 0.00 0.00 72 1062.7
20260902163931 20 292 11.3 0.0 0.00 0.00 0.00 72 1062.8
20260902163816 20 292 0.0 0.0 0.00 0.00 0.00 71 1062.7
20260902163706 21 292 6.4 0.0 0.00 0.00 0.00 71 1062.7
20260902163559 21 292 6.4 0.0 0.00 0.00 0.00 71 1062.8
20260902163447 21 247 11.3 0.0 0.00 0.00 0.00 71 1062.8
20260902163342 21 270 6.4 0.0 0.00 0.00 0.00 71 1062.8
20260902163235 21 292 9.7 0.0 0.00 0.00 0.00 71 1062.8
20260902163122 21 292 9.7 0.0 0.00 0.00 0.00 71 1062.8
20260902163000 21 337 9.7 0.0 0.00 0.00 0.00 71 1062.8
20260902162841 21 292 8.0 0.0 0.00 0.00 0.00 70 1062.8
20260902162725 21 315 6.4 0.0 0.00 0.00 0.00 70 1062.8
20260902162612 21 292 4.8 0.0 0.00 0.00 0.00 70 1062.8
20260902162452 21 292 12.9 0.0 0.00 0.00 0.00 69 1062.8
20260902162339 21 292 8.0 0.0 0.00 0.00 0.00 69 1062.8
20260902162225 21 315 6.4 0.0 0.00 0.00 0.00 69 1062.8
20260902162114 21 315 9.7 0.0 0.00 0.00 0.00 69 1062.7
20260902161959 21 315 0.0 0.0 0.00 0.00 0.00 69 1062.8
20260902161845 21 247 9.7 0.0 0.00 0.00 0.00 68 1062.7
20260902161734 22 270 4.8 0.0 0.00 0.00 0.00 68 1062.8
20260902161620 22 292 4.8 0.0 0.00 0.00 0.00 69 1062.7
20260902161507 22 292 16.1 0.0 0.00 0.00 0.00 69 1062.8
20260902161347 22 292 9.7 0.0 0.00 0.00 0.00 69 1062.7
20260902161241 22 292 0.0 0.0 0.00 0.00 0.00 69 1062.8
20260902161135 22 270 6.4 0.0 0.00 0.00 0.00 69 1062.7
20260902161015 22 270 9.7 0.0 0.00 0.00 0.00 69 1062.8
20260902160902 21 270 0.0 0.0 0.00 0.00 0.00 70 1062.8
20260902160740 21 270 6.4 0.0 0.00 0.00 0.00 69 1062.9
20260902160630 21 270 9.7 0.0 0.00 0.00 0.00 69 1062.8
20260902160514 22 270 4.8 0.0 0.00 0.00 0.00 69 1062.7
20260902160353 22 292 9.7 0.0 0.00 0.00 0.00 68 1062.8
20260902160242 22 292 8.0 0.0 0.00 0.00 0.00 68 1062.7
20260902160137 22 292 14.5 0.0 0.00 0.00 0.00 68 1062.7
20260902160032 22 315 9.7 0.0 0.00 0.00 0.00 68 1062.8
20260902155925 22 247 11.3 0.0 0.00 0.00 0.00 68 1062.7
20260902155805 22 270 0.0 0.0 0.00 0.00 0.00 67 1062.8
20260902155654 22 270 0.0 0.0 0.00 0.00 0.00 67 1062.8
20260902155548 22 292 9.7 0.0 0.00 0.00 0.00 67 1062.7
20260902155442 22 270 8.0 0.0 0.00 0.00 0.00 67 1062.8
20260902155323 22 270 0.0 0.0 0.00 0.00 0.00 66 1062.8
20260902155216 22 292 9.7 0.0 0.00 0.00 0.00 66 1062.8
20260902155103 23 270 8.0 0.0 0.00 0.00 0.00 65 1062.8
20260902154958 23 292 8.0 0.0 0.00 0.00 0.00 65 1062.8
20260902154845 23 315 4.8 0.0 0.00 0.00 0.00 65 1062.8
20260902154733 23 292 11.3 0.0 0.00 0.00 0.00 64 1062.8
20260902154618 23 292 11.3 0.0 0.00 0.00 0.00 63 1062.8
20260902154506 23 292 8.0 0.0 0.00 0.00 0.00 63 1062.9
20260902154400 23 292 9.7 0.0 0.00 0.00 0.00 63 1062.8
20260902154239 23 315 6.4 0.0 0.00 0.00 0.00 63 1062.8
20260902154109 23 292 9.7 0.0 0.00 0.00 0.00 63 1062.7
20260902153956 23 337 0.0 0.0 0.00 0.00 0.00 62 1062.8
20260902153844 23 270 8.0 0.0 0.00 0.00 0.00 62 1062.7
20260902153722 24 315 4.8 0.0 0.00 0.00 0.00 62 1062.8
20260902153611 24 270 6.4 0.0 0.00 0.00 0.00 62 1062.7
20260902153456 24 270 14.5 0.0 0.00 0.00 0.00 62 1062.8
20260902153343 24 270 6.4 0.0 0.00 0.00 0.00 62 1062.8
20260902153238 24 270 11.3 0.0 0.00 0.00 0.00 63 1062.8
20260902153116 24 292 0.0 0.0 0.00 0.00 0.00 63 1062.8
20260902152956 24 270 6.4 0.0 0.00 0.00 0.00 62 1062.8
20260902152850 24 292 8.0 0.0 0.00 0.00 0.00 63 1062.9
20260902152729 24 315 0.0 0.0 0.00 0.00 0.00 63 1063.0
20260902152607 24 292 4.8 0.0 0.00 0.00 0.00 63 1062.9
20260902152448 24 315 14.5 0.0 0.00 0.00 0.00 63 1063.0
20260902152343 24 270 8.0 0.0 0.00 0.00 0.00 64 1063.0
20260902152228 24 270 8.0 0.0 0.00 0.00 0.00 64 1063.0
20260902152117 24 292 0.0 0.0 0.00 0.00 0.00 64 1062.9
20260902152011 24 0 8.0 0.0 0.00 0.00 0.00 64 1063.0
20260902151906 24 292 9.7 0.0 0.00 0.00 0.00 64 1063.0
20260902151800 24 315 6.4 0.0 0.00 0.00 0.00 65 1063.0
20260902151639 24 270 4.8 0.0 0.00 0.00 0.00 64 1062.9
20260902151517 24 270 6.4 0.0 0.00 0.00 0.00 65 1063.0
20260902151407 24 315 4.8 0.0 0.00 0.00 0.00 65 1063.0
20260902151300 24 270 11.3 0.0 0.00 0.00 0.00 66 1063.0
20260902151147 23 315 6.4 0.0 0.00 0.00 0.00 66 1063.0
20260902151033 23 292 4.8 0.0 0.00 0.00 0.00 66 1063.1
20260902150921 23 270 4.8 0.0 0.00 0.00 0.00 66 1063.1
20260902150815 23 315 4.8 0.0 0.00 0.00 0.00 66 1063.1
20260902150705 23 247 0.0 0.0 0.00 0.00 0.00 67 1063.0
20260902150557 23 292 12.9 0.0 0.00 0.00 0.00 68 1063.0
20260902150437 23 270 9.7 0.0 0.00 0.00 0.00 69 1062.9
20260902150334 22 270 0.0 0.0 0.00 0.00 0.00 71 1063.0
20260902150219 22 247 0.0 0.0 0.00 0.00 0.00 71 1063.0
20260902150104 22 337 0.0 0.0 0.00 0.00 0.00 71 1063.0
20260902145954 22 270 8.0 0.0 0.00 0.00 0.00 72 1063.0
20260902145849 22 292 0.0 0.0 0.00 0.00 0.00 72 1063.0
20260902145736 22 270 8.0 0.0 0.00 0.00 0.00 72 1063.0
20260902145629 21 270 6.4 0.0 0.00 0.00 0.00 71 1063.1
20260902145524 22 315 11.3 0.0 0.00 0.00 0.00 71 1063.0
20260902145404 22 292 6.4 0.0 0.00 0.00 0.00 71 1063.1
20260902145258 22 270 4.8 0.0 0.00 0.00 0.00 71 1063.1
20260902145145 22 292 6.4 0.0 0.00 0.00 0.00 71 1063.1
20260902145033 22 315 8.0 0.0 0.00 0.00 0.00 71 1063.1
20260902144918 22 270 6.4 0.0 0.00 0.00 0.00 70 1063.1
20260902144757 22 270 8.0 0.0 0.00 0.00 0.00 70 1063.1
20260902144644 22 315 11.3 0.0 0.00 0.00 0.00 69 1063.1
20260902144531 22 292 9.7 0.0 0.00 0.00 0.00 69 1063.1
20260902144409 22 247 12.9 0.0 0.00 0.00 0.00 69 1063.1
20260902144257 22 292 11.3 0.0 0.00 0.00 0.00 68 1063.2
20260902144143 22 270 9.7 0.0 0.00 0.00 0.00 68 1063.1
20260902144016 22 270 8.0 0.0 0.00 0.00 0.00 67 1063.1
20260902143909 23 292 8.0 0.0 0.00 0.00 0.00 67 1063.1
20260902143755 23 270 9.7 0.0 0.00 0.00 0.00 67 1063.1
20260902143634 23 315 6.4 0.0 0.00 0.00 0.00 67 1063.1
20260902143514 23 337 8.0 0.0 0.00 0.00 0.00 68 1063.0
20260902143407 23 292 12.9 0.0 0.00 0.00 0.00 68 1063.1
20260902143247 23 270 9.7 0.0 0.00 0.00 0.00 69 1063.0
20260902143117 22 292 9.7 0.0 0.00 0.00 0.00 69 1063.0
20260902142956 22 315 9.7 0.0 0.00 0.00 0.00 69 1063.0
20260902142843 22 270 11.3 0.0 0.00 0.00 0.00 69 1063.1
20260902142723 22 247 8.0 0.0 0.00 0.00 0.00 69 1063.1
20260902142616 22 270 4.8 0.0 0.00 0.00 0.00 71 1062.9
20260902142456 22 292 9.7 0.0 0.00 0.00 0.00 71 1063.0
20260902142351 22 315 14.5 0.0 0.00 0.00 0.00 72 1063.0
20260902142247 22 270 6.4 0.0 0.00 0.00 0.00 72 1063.0
20260902142141 22 292 12.9 0.0 0.00 0.00 0.00 72 1063.0
20260902142036 22 292 6.4 0.0 0.00 0.00 0.00 72 1063.0
20260902141923 22 247 9.7 0.0 0.00 0.00 0.00 72 1062.9
20260902141817 22 270 3.2 0.0 0.00 0.00 0.00 73 1062.9
20260902141705 22 292 3.2 0.0 0.00 0.00 0.00 73 1062.9
20260902141552 22 270 4.8 0.0 0.00 0.00 0.00 72 1062.9
20260902141438 22 270 6.4 0.0 0.00 0.00 0.00 72 1062.8
20260902141319 22 247 8.0 0.0 0.00 0.00 0.00 72 1062.9
20260902141212 22 292 0.0 0.0 0.00 0.00 0.00 71 1062.8
20260902141101 22 270 8.0 0.0 0.00 0.00 0.00 71 1062.9
20260902140954 22 315 3.2 0.0 0.00 0.00 0.00 70 1062.8
20260902140831 22 292 6.4 0.0 0.00 0.00 0.00 71 1062.8
20260902140713 22 270 0.0 0.0 0.00 0.00 0.00 70 1062.8
20260902140558 22 270 14.5 0.0 0.00 0.00 0.00 70 1062.8
20260902140436 22 270 9.7 0.0 0.00 0.00 0.00 70 1062.8
20260902140315 22 270 9.7 0.0 0.00 0.00 0.00 70 1062.9
20260902140146 22 315 6.4 0.0 0.00 0.00 0.00 70 1062.9
20260902140025 22 225 9.7 0.0 0.00 0.00 0.00 69 1062.8
20260902135903 22 292 6.4 0.0 0.00 0.00 0.00 69 1062.9
20260902135751 23 292 9.7 0.0 0.00 0.00 0.00 69 1062.8
20260902135630 22 337 8.0 0.0 0.00 0.00 0.00 69 1062.9
20260902135516 23 247 8.0 0.0 0.00 0.00 0.00 69 1062.8
20260902135404 23 270 0.0 0.0 0.00 0.00 0.00 69 1062.8
20260902135258 23 247 9.7 0.0 0.00 0.00 0.00 69 1062.9
20260902135145 23 292 3.2 0.0 0.00 0.00 0.00 69 1062.8
20260902135033 23 292 4.8 0.0 0.00 0.00 0.00 69 1062.9
20260902134927 22 247 9.7 0.0 0.00 0.00 0.00 70 1062.9
20260902134806 22 270 0.0 0.0 0.00 0.00 0.00 70 1062.9
20260902134701 22 270 3.2 0.0 0.00 0.00 0.00 70 1062.9
20260902134548 22 292 3.2 0.0 0.00 0.00 0.00 70 1062.9
20260902134419 22 315 8.0 0.0 0.00 0.00 0.00 70 1062.9
20260902134314 22 270 3.2 0.0 0.00 0.00 0.00 70 1062.9
20260902134208 22 247 8.0 0.0 0.00 0.00 0.00 70 1062.9
20260902134047 22 292 9.7 0.0 0.00 0.00 0.00 69 1062.9
20260902133925 22 247 6.4 0.0 0.00 0.00 0.00 69 1063.0
20260902133804 22 270 6.4 0.0 0.00 0.00 0.00 69 1062.9
20260902133646 22 202 17.7 0.0 0.00 0.00 0.00 70 1062.9
20260902133538 22 202 9.7 0.0 0.00 0.00 0.00 70 1062.9
20260902133433 22 180 3.2 0.0 0.00 0.00 0.00 70 1063.0
20260902133320 22 292 9.7 0.0 0.00 0.00 0.00 70 1063.0
20260902133200 22 270 9.7 0.0 0.00 0.00 0.00 70 1062.9
20260902133053 22 247 8.0 0.0 0.00 0.00 0.00 71 1063.0
20260902132941 22 247 4.8 0.0 0.00 0.00 0.00 71 1063.0
20260902132828 22 247 6.4 0.0 0.00 0.00 0.00 72 1063.1
20260902132717 22 247 9.7 0.0 0.00 0.00 0.00 72 1063.0
20260902132611 22 292 0.0 0.0 0.00 0.00 0.00 71 1063.0
20260902132507 22 270 0.0 0.0 0.00 0.00 0.00 71 1063.0
20260902132359 22 270 6.4 0.0 0.00 0.00 0.00 71 1063.0
20260902132246 22 270 4.8 0.0 0.00 0.00 0.00 71 1063.0
20260902132134 22 247 8.0 0.0 0.00 0.00 0.00 71 1063.0
20260902132028 22 315 8.0 0.0 0.00 0.00 0.00 71 1063.0
20260902131915 22 270 6.4 0.0 0.00 0.00 0.00 71 1063.0
20260902131802 22 270 8.0 0.0 0.00 0.00 0.00 72 1063.0
20260902131650 22 180 0.0 0.0 0.00 0.00 0.00 72 1063.0
20260902131546 21 270 6.4 0.0 0.00 0.00 0.00 72 1063.0
20260902131439 21 247 6.4 0.0 0.00 0.00 0.00 72 1063.0
20260902131325 21 247 0.0 0.0 0.00 0.00 0.00 72 1063.0
20260902131213 21 247 3.2 0.0 0.00 0.00 0.00 72 1063.0
20260902131100 21 247 3.2 0.0 0.00 0.00 0.00 72 1063.0
20260902130939 21 180 0.0 0.0 0.00 0.00 0.00 72 1063.0
20260902130833 21 247 12.9 0.0 0.00 0.00 0.00 72 1063.0
20260902130727 21 247 6.4 0.0 0.00 0.00 0.00 72 1063.0
20260902130622 21 270 0.0 0.0 0.00 0.00 0.00 72 1063.0
20260902130516 21 270 4.8 0.0 0.00 0.00 0.00 72 1063.0
20260902130410 21 225 0.0 0.0 0.00 0.00 0.00 72 1062.9
20260902130305 21 247 6.4 0.0 0.00 0.00 0.00 72 1062.9
20260902130144 21 247 8.0 0.0 0.00 0.00 0.00 72 1062.9
20260902130023 21 247 3.2 0.0 0.00 0.00 0.00 71 1063.0
20260902125904 21 180 8.0 0.0 0.00 0.00 0.00 71 1062.9
20260902125758 21 247 0.0 0.0 0.00 0.00 0.00 70 1063.0
20260902125653 21 270 4.8 0.0 0.00 0.00 0.00 70 1063.0
20260902125546 21 225 3.2 0.0 0.00 0.00 0.00 70 1063.0
20260902125433 21 270 16.1 0.0 0.00 0.00 0.00 69 1063.0
20260902125321 21 202 8.0 0.0 0.00 0.00 0.00 68 1062.9
20260902125215 21 180 12.9 0.0 0.00 0.00 0.00 68 1062.9
20260902125111 21 270 0.0 0.0 0.00 0.00 0.00 68 1063.0
20260902125005 21 247 6.4 0.0 0.00 0.00 0.00 68 1062.9
20260902124853 21 180 9.7 0.0 0.00 0.00 0.00 68 1062.9
20260902124746 21 225 4.8 0.0 0.00 0.00 0.00 68 1063.0
20260902124634 21 247 4.8 0.0 0.00 0.00 0.00 68 1062.9
20260902124529 21 270 6.4 0.0 0.00 0.00 0.00 67 1063.0
20260902124408 21 270 0.0 0.0 0.00 0.00 0.00 67 1062.9
20260902124304 21 270 8.0 0.0 0.00 0.00 0.00 67 1063.0
20260902124157 21 247 9.7 0.0 0.00 0.00 0.00 67 1063.0
20260902124044 21 225 9.7 0.0 0.00 0.00 0.00 67 1063.0
20260902123934 21 247 8.0 0.0 0.00 0.00 0.00 67 1063.0
20260902123827 21 225 9.7 0.0 0.00 0.00 0.00 67 1063.0
20260902123659 21 225 4.8 0.0 0.00 0.00 0.00 67 1062.9
20260902123546 21 270 3.2 0.0 0.00 0.00 0.00 66 1062.9
20260902123425 21 270 16.1 0.0 0.00 0.00 0.00 66 1063.0
20260902123305 21 247 0.0 0.0 0.00 0.00 0.00 67 1062.9
20260902123201 21 270 0.0 0.0 0.00 0.00 0.00 67 1063.0
20260902123055 21 225 4.8 0.0 0.00 0.00 0.00 67 1062.9
20260902122942 21 247 4.8 0.0 0.00 0.00 0.00 68 1063.0
20260902122829 21 225 4.8 0.0 0.00 0.00 0.00 68 1063.0
20260902122715 21 180 9.7 0.0 0.00 0.00 0.00 68 1062.9
20260902122603 21 157 6.4 0.0 0.00 0.00 0.00 69 1063.0
20260902122452 21 202 4.8 0.0 0.00 0.00 0.00 69 1062.9
20260902122344 21 225 6.4 0.0 0.00 0.00 0.00 70 1062.9
20260902122232 20 247 8.0 0.0 0.00 0.00 0.00 71 1063.0
20260902122127 20 247 9.7 0.0 0.00 0.00 0.00 71 1063.0
20260902122014 20 247 0.0 0.0 0.00 0.00 0.00 71 1063.0
20260902121911 20 247 0.0 0.0 0.00 0.00 0.00 71 1063.0
20260902121805 20 270 6.4 0.0 0.00 0.00 0.00 72 1063.0
20260902121658 20 225 0.0 0.0 0.00 0.00 0.00 71 1063.0
20260902121553 20 202 3.2 0.0 0.00 0.00 0.00 71 1063.0
20260902121440 20 202 3.2 0.0 0.00 0.00 0.00 71 1063.0
20260902121335 20 202 4.8 0.0 0.00 0.00 0.00 71 1063.0
20260902121222 20 180 4.8 0.0 0.00 0.00 0.00 71 1063.0
20260902121108 20 202 6.4 0.0 0.00 0.00 0.00 71 1063.0
20260902120947 20 225 6.4 0.0 0.00 0.00 0.00 71 1063.0
20260902120827 20 225 6.4 0.0 0.00 0.00 0.00 72 1063.0
20260902120720 20 225 4.8 0.0 0.00 0.00 0.00 72 1062.9
20260902120606 20 202 0.0 0.0 0.00 0.00 0.00 72 1063.0
20260902120455 20 225 3.2 0.0 0.00 0.00 0.00 73 1062.9
20260902120347 20 225 6.4 0.0 0.00 0.00 0.00 73 1063.0
20260902120233 20 180 0.0 0.0 0.00 0.00 0.00 73 1062.9
20260902120119 20 180 3.2 0.0 0.00 0.00 0.00 73 1063.0
20260902120013 19 247 1.6 0.0 0.00 0.00 0.00 73 1063.0
20260902115859 19 270 6.4 0.0 0.00 0.00 0.00 73 1063.0
20260902115747 19 247 3.2 0.0 0.00 0.00 0.00 73 1063.0
20260902115632 19 270 4.8 0.0 0.00 0.00 0.00 73 1062.9
20260902115520 19 225 6.4 0.0 0.00 0.00 0.00 73 1062.9
20260902115406 19 270 1.6 0.0 0.00 0.00 0.00 73 1062.9
20260902115246 18 247 6.4 0.0 0.00 0.00 0.00 73 1062.9
20260902115141 18 225 4.8 0.0 0.00 0.00 0.00 73 1062.9
20260902115032 18 157 11.3 0.0 0.00 0.00 0.00 72 1063.0
20260902114918 19 247 0.0 0.0 0.00 0.00 0.00 72 1063.1
20260902114812 19 247 16.1 0.0 0.00 0.00 0.00 71 1063.1
20260902114702 19 270 3.2 0.0 0.00 0.00 0.00 71 1063.1
20260902114553 19 247 8.0 0.0 0.00 0.00 0.00 70 1063.1
20260902114441 19 270 4.8 0.0 0.00 0.00 0.00 70 1063.1
20260902114327 19 180 9.7 0.0 0.00 0.00 0.00 70 1063.1
20260902114214 20 270 9.7 0.0 0.00 0.00 0.00 70 1063.1
20260902114045 20 247 22.5 0.0 0.00 0.00 0.00 70 1063.1
20260902113932 20 270 12.9 0.0 0.00 0.00 0.00 69 1063.1
20260902113811 20 270 14.5 0.0 0.00 0.00 0.00 68 1063.1
20260902113649 20 270 20.9 0.0 0.00 0.00 0.00 67 1063.2
20260902113528 21 247 8.0 0.0 0.00 0.00 0.00 66 1063.1
20260902113407 21 292 22.5 0.0 0.00 0.00 0.00 67 1063.1
20260902113254 21 247 8.0 0.0 0.00 0.00 0.00 66 1063.1
20260902113137 21 270 22.5 0.0 0.00 0.00 0.00 66 1063.1
20260902113029 21 270 16.1 0.0 0.00 0.00 0.00 65 1063.2
20260902112913 21 270 3.2 0.0 0.00 0.00 0.00 64 1063.2
20260902112803 22 292 17.7 0.0 0.00 0.00 0.00 64 1063.2
20260902112655 22 315 9.7 0.0 0.00 0.00 0.00 63 1063.2
20260902112534 22 270 12.9 0.0 0.00 0.00 0.00 63 1063.2
20260902112421 22 270 11.3 0.0 0.00 0.00 0.00 63 1063.2
20260902112300 23 270 25.7 0.0 0.00 0.00 0.00 67 1063.2
20260902112140 23 292 14.5 0.0 0.00 0.00 0.00 67 1063.1
20260902112025 23 247 11.3 0.0 0.00 0.00 0.00 67 1063.2
20260902111856 23 270 11.3 0.0 0.00 0.00 0.00 67 1063.1
20260902111743 23 292 16.1 0.0 0.00 0.00 0.00 67 1063.1
20260902111614 22 270 4.8 0.0 0.00 0.00 0.00 67 1063.1
20260902111502 22 292 8.0 0.0 0.00 0.00 0.00 68 1063.2
20260902111350 22 247 0.0 0.0 0.00 0.00 0.00 68 1063.2
20260902111243 22 247 9.7 0.0 0.00 0.00 0.00 68 1063.1
20260902111122 22 247 12.9 0.0 0.00 0.00 0.00 69 1063.2
20260902111001 22 270 0.0 0.0 0.00 0.00 0.00 70 1063.2
20260902110848 22 270 6.4 0.0 0.00 0.00 0.00 69 1063.2
20260902110735 22 292 9.7 0.0 0.00 0.00 0.00 69 1063.2
20260902110630 22 270 6.4 0.0 0.00 0.00 0.00 69 1063.1
20260902110510 22 270 8.0 0.0 0.00 0.00 0.00 69 1063.2
20260902110406 22 270 0.0 0.0 0.00 0.00 0.00 68 1063.2
20260902110259 22 225 8.0 0.0 0.00 0.00 0.00 68 1063.2
20260902110153 22 315 12.9 0.0 0.00 0.00 0.00 68 1063.2
20260902110032 22 270 9.7 0.0 0.00 0.00 0.00 67 1063.1
20260902105910 23 270 17.7 0.0 0.00 0.00 0.00 67 1063.1
20260902105750 23 270 0.0 0.0 0.00 0.00 0.00 66 1063.1
20260902105638 23 270 6.4 0.0 0.00 0.00 0.00 66 1063.1
20260902105534 23 225 11.3 0.0 0.00 0.00 0.00 66 1063.1
20260902105426 23 292 19.3 0.0 0.00 0.00 0.00 65 1063.1
20260902105314 23 202 16.1 0.0 0.00 0.00 0.00 66 1063.1
20260902105200 23 247 6.4 0.0 0.00 0.00 0.00 66 1063.1
20260902105041 23 292 4.8 0.0 0.00 0.00 0.00 66 1063.1
20260902104933 23 292 0.0 0.0 0.00 0.00 0.00 66 1063.0
20260902104814 23 0 9.7 0.0 0.00 0.00 0.00 67 1063.1
20260902104708 22 292 0.0 0.0 0.00 0.00 0.00 66 1063.1
20260902104547 22 270 0.0 0.0 0.00 0.00 0.00 66 1063.1
20260902104426 22 270 6.4 0.0 0.00 0.00 0.00 66 1063.1
20260902104313 22 337 6.4 0.0 0.00 0.00 0.00 67 1063.1
20260902104151 22 225 6.4 0.0 0.00 0.00 0.00 67 1063.1
20260902104041 22 247 9.7 0.0 0.00 0.00 0.00 67 1063.1
20260902103914 22 202 8.0 0.0 0.00 0.00 0.00 67 1063.2
20260902103806 22 247 9.7 0.0 0.00 0.00 0.00 66 1063.2
20260902103645 22 270 11.3 0.0 0.00 0.00 0.00 67 1063.2
20260902103534 22 315 4.8 0.0 0.00 0.00 0.00 67 1063.1
20260902103418 22 247 9.7 0.0 0.00 0.00 0.00 67 1063.2
20260902103252 22 270 4.8 0.0 0.00 0.00 0.00 68 1063.2
20260902103133 22 292 14.5 0.0 0.00 0.00 0.00 68 1063.2
20260902103025 22 270 9.7 0.0 0.00 0.00 0.00 67 1063.2
20260902102905 22 292 8.0 0.0 0.00 0.00 0.00 67 1063.2
20260902102755 22 270 8.0 0.0 0.00 0.00 0.00 67 1063.1
20260902102648 22 270 11.3 0.0 0.00 0.00 0.00 67 1063.1
20260902102541 22 270 12.9 0.0 0.00 0.00 0.00 68 1063.2
20260902102422 22 247 16.1 0.0 0.00 0.00 0.00 69 1063.2
20260902102317 22 270 0.0 0.0 0.00 0.00 0.00 69 1063.2
20260902102212 22 270 0.0 0.0 0.00 0.00 0.00 69 1063.1
20260902102107 22 292 8.0 0.0 0.00 0.00 0.00 69 1063.1
20260902102002 22 247 0.0 0.0 0.00 0.00 0.00 69 1063.2
20260902101857 22 270 0.0 0.0 0.00 0.00 0.00 68 1063.1
20260902101751 22 247 6.4 0.0 0.00 0.00 0.00 68 1063.1
20260902101632 22 292 8.0 0.0 0.00 0.00 0.00 68 1063.1
20260902101527 22 247 0.0 0.0 0.00 0.00 0.00 67 1063.1
20260902101423 22 292 8.0 0.0 0.00 0.00 0.00 67 1063.1
20260902101318 22 247 4.8 0.0 0.00 0.00 0.00 67 1063.1
20260902101212 22 225 16.1 0.0 0.00 0.00 0.00 67 1063.0
20260902101107 22 247 9.7 0.0 0.00 0.00 0.00 67 1063.1
20260902100932 22 247 4.8 0.0 0.00 0.00 0.00 66 1063.0
20260902100827 23 292 11.3 0.0 0.00 0.00 0.00 65 1063.0
20260902100719 23 225 11.3 0.0 0.00 0.00 0.00 65 1063.0
20260902100559 23 157 14.5 0.0 0.00 0.00 0.00 65 1063.0
20260902100456 23 270 0.0 0.0 0.00 0.00 0.00 65 1063.0
20260902100348 23 247 3.2 0.0 0.00 0.00 0.00 65 1063.0
20260902100219 23 270 0.0 0.0 0.00 0.00 0.00 64 1063.0
20260902100107 23 292 9.7 0.0 0.00 0.00 0.00 64 1063.0
20260902095955 23 202 0.0 0.0 0.00 0.05 0.00 64 1063.0
20260902095848 23 247 9.7 0.0 0.00 0.05 0.00 63 1063.0
20260902095726 23 180 9.7 0.0 0.00 0.05 0.00 63 1063.0
20260902095613 24 225 9.7 0.0 0.00 0.05 0.00 62 1063.0
20260902095503 24 225 20.9 0.0 0.00 0.05 0.00 62 1063.0
20260902095355 25 225 9.7 0.0 0.00 0.05 0.00 62 1062.9
20260902095234 25 247 17.7 0.0 0.00 0.05 0.00 61 1063.0
20260902095123 25 292 9.7 0.0 0.00 0.05 0.00 60 1063.0
20260902095016 25 247 6.4 0.0 0.00 0.05 0.00 59 1062.9
20260902094855 25 270 6.4 0.0 0.00 0.05 0.00 58 1063.0
20260902094742 26 247 6.4 0.0 0.00 0.05 0.00 57 1062.9
20260902094629 26 225 6.4 0.0 0.00 0.05 0.00 57 1062.9
20260902094524 26 292 11.3 0.0 0.00 0.05 0.00 56 1062.9
20260902094412 26 225 0.0 0.0 0.00 0.05 0.00 56 1062.9
20260902094306 26 247 9.7 0.0 0.00 0.05 0.00 56 1062.9
20260902094154 27 292 9.7 0.0 0.00 0.05 0.00 55 1062.9
20260902094049 27 247 6.4 0.0 0.00 0.05 0.00 56 1062.9
20260902093942 26 247 0.0 0.0 0.00 0.05 0.00 57 1062.9
20260902093820 26 247 6.4 0.0 0.00 0.05 0.00 57 1062.8
20260902093652 26 225 4.8 0.0 0.00 0.05 0.00 56 1062.8
20260902093530 26 247 9.7 0.0 0.00 0.05 0.00 56 1062.9
20260902093409 27 157 8.0 0.0 0.00 0.05 0.00 56 1062.9
20260902093257 26 247 11.3 0.0 0.00 0.05 0.00 56 1062.9
20260902093152 26 270 11.3 0.0 0.00 0.05 0.00 56 1062.9
20260902093030 26 225 0.0 0.0 0.00 0.05 0.00 56 1062.9
20260902092917 26 247 8.0 0.0 0.00 0.05 0.00 57 1062.9
20260902092755 26 270 11.3 0.0 0.00 0.05 0.00 57 1062.8
20260902092635 26 180 14.5 0.0 0.00 0.05 0.00 58 1062.9
20260902092522 26 225 4.8 0.0 0.00 0.05 0.00 59 1062.9
20260902092415 26 270 0.0 0.0 0.00 0.05 0.00 59 1062.9
20260902092305 26 270 6.4 0.0 0.00 0.05 0.00 59 1062.9
20260902092150 26 270 9.7 0.0 0.00 0.05 0.00 58 1062.9
20260902092039 26 225 8.0 0.0 0.00 0.05 0.00 58 1062.9
20260902091934 26 225 9.7 0.0 0.00 0.05 0.00 59 1062.9
20260902091819 26 225 9.7 0.0 0.00 0.05 0.00 59 1062.9
20260902091705 26 202 9.7 0.0 0.00 0.05 0.00 59 1062.9
20260902091545 26 247 6.4 0.0 0.00 0.05 0.00 59 1062.9
20260902091442 26 202 9.7 0.0 0.00 0.05 0.00 59 1062.9
20260902091334 26 270 9.7 0.0 0.00 0.05 0.00 61 1062.9
20260902091224 25 247 0.0 0.0 0.00 0.05 0.00 61 1062.9
20260902091117 25 180 6.4 0.0 0.00 0.05 0.00 60 1062.9
20260902091003 25 225 9.7 0.0 0.00 0.05 0.00 61 1062.9
20260902090843 25 247 9.7 0.0 0.00 0.05 0.00 61 1062.9
20260902090729 25 225 11.3 0.0 0.00 0.05 0.00 61 1062.9
20260902090602 25 225 8.0 0.0 0.00 0.05 0.00 61 1062.9
20260902090448 25 180 11.3 0.0 0.00 0.05 0.00 61 1062.8
20260902090342 25 202 6.4 0.0 0.00 0.05 0.00 60 1062.9
20260902090231 25 157 17.7 0.0 0.00 0.05 0.00 59 1062.9
20260902090117 25 225 9.7 0.0 0.00 0.05 0.00 60 1062.9
20260902090012 25 202 3.2 0.0 0.00 0.05 0.00 60 1062.9
20260902085859 25 292 8.0 0.0 0.00 0.20 0.00 59 1062.9
20260902085746 26 157 8.0 0.0 0.00 0.20 0.00 59 1062.9
20260902085641 26 247 4.8 0.0 0.00 0.20 0.00 59 1062.9
20260902085536 26 202 16.1 0.0 0.00 0.20 0.00 59 1062.9
20260902085431 26 270 11.3 0.0 0.00 0.20 0.00 59 1063.0
20260902085325 26 247 0.0 0.0 0.00 0.20 0.00 59 1062.9
20260902085220 26 247 9.7 0.0 0.00 0.20 0.00 59 1062.9
20260902085109 26 157 0.0 0.0 0.00 0.20 0.00 59 1062.9
20260902085001 25 292 0.0 0.0 0.00 0.20 0.00 59 1062.9
20260902084849 25 247 0.0 0.0 0.00 0.20 0.00 59 1062.9
20260902084735 25 225 0.0 0.0 0.00 0.20 0.00 59 1063.0
20260902084623 25 180 11.3 0.0 0.00 0.20 0.00 59 1062.9
20260902084510 25 180 8.0 0.0 0.00 0.20 0.00 58 1062.9
20260902084347 26 225 16.1 0.0 0.00 0.20 0.00 59 1062.9
20260902084235 25 270 0.0 0.0 0.00 0.20 0.00 59 1062.8
20260902084131 25 247 9.7 0.0 0.00 0.20 0.00 59 1062.8
20260902084017 25 247 9.7 0.0 0.00 0.20 0.00 59 1062.9
20260902083854 25 247 0.0 0.0 0.00 0.20 0.00 60 1062.9
20260902083742 25 270 6.4 0.0 0.00 0.20 0.00 60 1062.8
20260902083621 25 225 8.0 0.0 0.00 0.20 0.00 60 1062.8
20260902083508 25 225 3.2 0.0 0.00 0.20 0.00 60 1062.8
20260902083346 25 202 9.7 0.0 0.00 0.20 0.00 60 1062.8
20260902083236 25 292 8.0 0.0 0.00 0.20 0.00 60 1062.7
20260902083129 25 157 8.0 0.0 0.00 0.20 0.00 60 1062.8
20260902083000 25 270 8.0 0.0 0.00 0.20 0.00 60 1062.8
20260902082850 25 202 17.7 0.0 0.00 0.20 0.00 60 1062.7
20260902082744 25 180 6.4 0.0 0.00 0.20 0.00 60 1062.7
20260902082638 25 157 8.0 0.0 0.00 0.20 0.00 60 1062.6
20260902082526 25 180 8.0 0.0 0.00 0.20 0.00 61 1062.6
20260902082413 25 180 11.3 0.0 0.00 0.20 0.00 62 1062.6
20260902082254 24 292 8.0 0.0 0.00 0.20 0.00 62 1062.6
20260902082134 24 225 0.0 0.0 0.00 0.20 0.00 62 1062.6
20260902082017 24 202 0.0 0.0 0.00 0.20 0.00 62 1062.5
20260902081904 24 202 6.4 0.0 0.00 0.20 0.00 62 1062.6
20260902081751 23 270 3.2 0.0 0.00 0.20 0.00 63 1062.5
20260902081638 23 157 8.0 0.0 0.00 0.20 0.00 62 1062.5
20260902081532 23 270 4.8 0.0 0.00 0.20 0.00 62 1062.5
20260902081411 23 225 8.0 0.0 0.00 0.20 0.00 62 1062.5
20260902081258 23 202 14.5 0.0 0.00 0.20 0.00 62 1062.5
20260902081146 23 202 12.9 0.0 0.00 0.20 0.00 62 1062.4
20260902081032 23 270 0.0 0.0 0.00 0.20 0.00 62 1062.4
20260902080919 23 202 9.7 0.0 0.00 0.20 0.00 62 1062.5
20260902080806 23 157 4.8 0.0 0.00 0.20 0.00 63 1062.5
20260902080652 23 180 8.0 0.0 0.00 0.20 0.00 62 1062.5
20260902080540 23 180 8.0 0.0 0.00 0.20 0.00 62 1062.5
20260902080418 23 180 6.4 0.0 0.00 0.20 0.00 63 1062.5
20260902080306 23 180 9.7 0.0 0.00 0.20 0.00 64 1062.5
20260902080201 23 180 8.0 0.0 0.00 0.20 0.00 65 1062.5
20260902080056 23 202 0.0 0.0 0.00 0.20 0.00 65 1062.5
20260902075950 23 225 4.8 0.0 0.00 0.20 0.00 64 1062.4
20260902075831 23 247 6.4 0.0 0.00 0.20 0.00 64 1062.5
20260902075715 23 225 6.4 0.0 0.00 0.20 0.00 65 1062.5
20260902075554 22 180 3.2 0.0 0.00 0.20 0.00 65 1062.5
20260902075433 22 202 0.0 0.0 0.00 0.20 0.00 66 1062.4
20260902075312 22 270 8.0 0.0 0.00 0.20 0.00 65 1062.5
20260902075150 22 202 8.0 0.0 0.00 0.20 0.00 66 1062.5
20260902075038 22 180 9.7 0.0 0.00 0.20 0.00 66 1062.4
20260902074933 22 247 9.7 0.0 0.00 0.20 0.00 66 1062.5
20260902074828 22 270 11.3 0.0 0.00 0.20 0.00 66 1062.5
20260902074717 22 202 9.7 0.0 0.00 0.20 0.00 66 1062.5
20260902074611 22 180 12.9 0.0 0.00 0.20 0.00 66 1062.5
20260902074504 22 247 6.4 0.0 0.00 0.20 0.00 66 1062.5
20260902074350 22 202 9.7 0.0 0.00 0.20 0.00 66 1062.6
20260902074229 22 247 6.4 0.0 0.00 0.20 0.00 66 1062.5
20260902074118 22 202 9.7 0.0 0.00 0.20 0.00 66 1062.5
20260902074004 22 202 11.3 0.0 0.00 0.20 0.00 66 1062.6
20260902073850 22 202 12.9 0.0 0.00 0.20 0.00 67 1062.5
20260902073729 22 202 0.0 0.0 0.00 0.20 0.00 67 1062.5
20260902073617 21 225 4.8 0.0 0.00 0.20 0.00 67 1062.5
20260902073512 22 225 4.8 0.0 0.00 0.20 0.00 67 1062.5
20260902073350 21 180 3.2 0.0 0.00 0.20 0.00 67 1062.5
20260902073214 21 225 3.2 0.0 0.00 0.20 0.00 68 1062.5
20260902073056 21 202 14.5 0.0 0.00 0.20 0.00 68 1062.5
20260902072950 21 202 9.7 0.0 0.00 0.20 0.00 67 1062.5
20260902072845 21 180 12.9 0.0 0.00 0.20 0.00 68 1062.4
20260902072739 21 247 4.8 0.0 0.00 0.20 0.00 69 1062.5
20260902072617 21 202 9.7 0.0 0.00 0.20 0.00 69 1062.4
20260902072459 21 202 0.0 0.0 0.00 0.20 0.00 70 1062.5
20260902072351 20 202 8.0 0.0 0.00 0.20 0.00 71 1062.4
20260902072222 20 180 6.4 0.0 0.00 0.20 0.00 72 1062.5
20260902072103 20 180 8.0 0.0 0.00 0.20 0.00 72 1062.5
20260902071955 20 180 3.2 0.0 0.00 0.20 0.00 73 1062.5
20260902071841 20 180 9.7 0.0 0.00 0.20 0.00 73 1062.5
20260902071727 20 202 11.3 0.0 0.00 0.20 0.00 72 1062.6
20260902071605 20 247 3.2 0.0 0.00 0.20 0.00 73 1062.5
20260902071452 19 180 0.0 0.0 0.00 0.20 0.00 74 1062.5
20260902071346 19 180 6.4 0.0 0.00 0.20 0.00 74 1062.6
20260902071225 19 270 8.0 0.0 0.00 0.20 0.00 74 1062.5
20260902071103 19 225 17.7 0.0 0.00 0.20 0.00 75 1062.5
20260902070934 18 180 4.8 0.0 0.00 0.20 0.00 77 1062.5
20260902070813 18 180 0.0 0.0 0.00 0.20 0.00 78 1062.5
20260902070655 18 180 0.0 0.0 0.00 0.20 0.00 78 1062.6
20260902070547 18 180 12.9 0.0 0.00 0.20 0.00 79 1062.6
20260902070433 17 202 16.1 0.0 0.00 0.20 0.00 79 1062.5
20260902070327 17 202 9.7 0.0 0.00 0.20 0.00 80 1062.5
20260902070213 17 202 11.3 0.0 0.00 0.20 0.00 80 1062.5
20260902065957 17 157 3.2 0.0 0.00 0.25 0.00 80 1062.5
20260902065842 17 225 6.4 0.0 0.00 0.25 0.00 80 1062.5
20260902065729 17 180 8.0 0.0 0.00 0.25 0.00 80 1062.6
20260902065615 17 202 1.6 0.0 0.00 0.25 0.00 80 1062.6
20260902065455 17 180 17.7 0.0 0.00 0.25 0.00 80 1062.6
20260902065342 17 180 0.0 0.0 0.00 0.25 0.00 80 1062.6
20260902065237 17 202 9.7 0.0 0.00 0.25 0.00 80 1062.6
20260902065132 17 202 0.0 0.0 0.00 0.25 0.00 80 1062.5
20260902065027 17 202 6.4 0.0 0.00 0.25 0.00 80 1062.5
20260902064907 17 202 8.0 0.0 0.00 0.25 0.00 79 1062.6
20260902064800 17 225 8.0 0.0 0.00 0.25 0.00 79 1062.5
20260902064647 17 225 6.4 0.0 0.00 0.25 0.00 79 1062.5
20260902064533 17 202 4.8 0.0 0.00 0.25 0.00 79 1062.6
20260902064426 17 202 0.0 0.0 0.00 0.25 0.00 79 1062.5
20260902064305 17 180 6.4 0.0 0.00 0.25 0.00 79 1062.5
20260902064151 17 157 6.4 0.0 0.00 0.25 0.00 79 1062.6
20260902064037 17 202 6.4 0.0 0.00 0.25 0.00 79 1062.5
20260902063932 17 202 8.0 0.0 0.00 0.25 0.00 80 1062.5
20260902063819 17 247 6.4 0.0 0.00 0.25 0.00 80 1062.6
20260902063712 17 202 9.7 0.0 0.00 0.25 0.00 80 1062.6
20260902063600 17 225 1.6 0.0 0.00 0.25 0.00 80 1062.6
20260902063439 17 180 6.4 0.0 0.00 0.25 0.00 80 1062.6
20260902063318 17 180 4.8 0.0 0.00 0.25 0.00 81 1062.5
20260902063156 17 202 8.0 0.0 0.00 0.25 0.00 80 1062.6
20260902063037 17 202 14.5 0.0 0.00 0.25 0.00 81 1062.5
20260902062922 17 180 9.7 0.0 0.00 0.25 0.00 81 1062.6
20260902062809 17 157 6.4 0.0 0.00 0.25 0.00 82 1062.5
20260902062647 17 225 8.0 0.0 0.00 0.25 0.00 82 1062.5
20260902062535 17 157 6.4 0.0 0.00 0.25 0.00 83 1062.6
20260902062422 17 180 4.8 0.0 0.00 0.25 0.00 84 1062.6
20260902062305 17 202 4.8 0.0 0.00 0.25 0.00 85 1062.6
20260902062155 17 157 1.6 0.0 0.00 0.25 0.00 86 1062.6
20260902062049 17 225 11.3 0.0 0.00 0.25 0.00 87 1062.6
20260902061935 16 202 9.7 0.0 0.00 0.25 0.00 88 1062.6
20260902061824 16 157 6.4 0.0 0.00 0.25 0.00 88 1062.6
20260902061717 16 180 9.7 0.0 0.00 0.25 0.00 89 1062.7
20260902061604 16 157 0.0 0.0 0.00 0.25 0.00 90 1062.6
20260902061450 16 180 0.0 0.0 0.00 0.25 0.00 90 1062.6
20260902061329 16 180 11.3 0.0 0.00 0.25 0.00 90 1062.7
20260902061222 16 180 3.2 0.0 0.00 0.25 0.00 91 1062.6
20260902061116 16 202 0.0 0.0 0.00 0.25 0.00 90 1062.6
20260902061003 15 180 9.7 0.0 0.00 0.25 0.00 91 1062.6
20260902060857 15 135 4.8 0.0 0.00 0.25 0.00 91 1062.7